Time,TemperatureF,DewpointF,PressureIn,WindDirection,WindDirectionDegrees,WindSpeedMPH,WindSpeedGustMPH,Humidity,HourlyPrecipIn,Conditions,Clouds,dailyrainin,SoftwareType,DateUTC
2013-02-18 00:01:00,39.2,36.2,30.09,ESE,112,0.0,0.0,89,0.00,,OVC120,0.00,VWS V14.00,2013-02-18 08:01:00,
2013-02-18 00:06:00,39.0,36.1,30.09,SW,225,0.0,0.0,89,0.00,,OVC120,0.00,VWS V14.00,2013-02-18 08:06:00,
2013-02-18 00:11:00,39.0,36.3,30.09,SSE,158,0.0,0.0,90,0.00,,OVC120,0.00,VWS V14.00,2013-02-18 08:11:00,
2013-02-18 00:16:00,39.0,36.3,30.09,WSW,248,0.0,0.0,90,0.00,,OVC044,0.00,VWS V14.00,2013-02-18 08:16:00,
2013-02-18 00:21:00,39.0,36.3,30.09,WSW,248,0.0,0.0,90,0.00,,OVC120,0.00,VWS V14.00,2013-02-18 08:21:00,
2013-02-18 00:26:00,39.2,36.5,30.09,WSW,248,0.0,0.0,90,0.00,,OVC120,0.00,VWS V14.00,2013-02-18 08:26:00,
2013-02-18 00:27:00,39.2,36.5,30.09,WSW,248,0.0,0.0,90,0.00,,OVC120,0.00,VWS V14.00,2013-02-18 08:27:00,
2013-02-18 00:31:00,39.2,36.5,30.09,WSW,248,0.0,0.0,90,0.00,,OVC120,0.00,VWS V14.00,2013-02-18 08:31:00,
2013-02-18 00:32:00,39.0,36.3,30.09,WSW,248,0.0,0.0,90,0.00,,OVC120,0.00,VWS V14.00,2013-02-18 08:32:00,
2013-02-18 00:36:00,39.0,36.3,30.09,ESE,112,0.0,0.0,90,0.00,,FEW044,0.00,VWS V14.00,2013-02-18 08:36:00,
2013-02-18 00:37:00,39.0,36.3,30.09,ESE,112,0.0,0.0,90,0.00,,FEW044,0.00,VWS V14.00,2013-02-18 08:37:00,
2013-02-18 00:41:00,39.0,36.3,30.09,ESE,112,0.0,0.0,90,0.00,,FEW044,0.00,VWS V14.00,2013-02-18 08:41:00,
2013-02-18 00:42:00,39.0,36.3,30.09,ESE,112,0.0,0.0,90,0.00,,FEW044,0.00,VWS V14.00,2013-02-18 08:42:00,
2013-02-18 00:46:00,39.0,36.3,30.09,ESE,112,0.0,0.0,90,0.00,,FEW044,0.00,VWS V14.00,2013-02-18 08:46:00,
2013-02-18 00:47:00,39.0,36.3,30.09,ESE,112,0.0,0.0,90,0.00,,FEW044,0.00,VWS V14.00,2013-02-18 08:47:00,
2013-02-18 00:51:00,38.8,36.2,30.09,ESE,112,0.0,0.0,90,0.00,,BKN120,0.00,VWS V14.00,2013-02-18 08:51:00,
2013-02-18 00:52:00,38.8,36.2,30.09,ESE,112,0.0,0.0,90,0.00,,BKN120,0.00,VWS V14.00,2013-02-18 08:52:00,
2013-02-18 00:56:00,38.8,36.2,30.09,ESE,112,0.0,0.0,90,0.00,,BKN120,0.00,VWS V14.00,2013-02-18 08:56:00,
2013-02-18 00:57:00,38.8,36.2,30.09,ESE,112,0.0,0.0,90,0.00,,BKN120,0.00,VWS V14.00,2013-02-18 08:57:00,
2013-02-18 01:01:00,38.8,36.2,30.09,SSW,202,0.0,0.0,90,0.00,,BKN120,0.00,VWS V14.00,2013-02-18 09:01:00,
2013-02-18 01:02:00,38.8,36.2,30.09,SSW,202,0.0,0.0,90,0.00,,BKN120,0.00,VWS V14.00,2013-02-18 09:02:00,
2013-02-18 01:06:00,38.8,36.2,30.09,SW,225,0.0,0.0,90,0.00,,BKN120,0.00,VWS V14.00,2013-02-18 09:06:00,
2013-02-18 01:07:00,38.8,36.2,30.09,SW,225,0.0,0.0,90,0.00,,BKN120,0.00,VWS V14.00,2013-02-18 09:07:00,
2013-02-18 01:11:00,38.8,36.2,30.06,SW,225,0.0,0.0,90,0.00,,BKN120,0.00,VWS V14.00,2013-02-18 09:11:00,
2013-02-18 01:12:00,38.8,36.2,30.06,SW,225,0.0,0.0,90,0.00,,BKN120,0.00,VWS V14.00,2013-02-18 09:12:00,
2013-02-18 01:16:00,38.8,36.2,30.06,SW,225,0.0,0.0,90,0.00,,SCT044,0.00,VWS V14.00,2013-02-18 09:16:00,
2013-02-18 01:17:00,38.8,36.2,30.06,SW,225,0.0,0.0,90,0.00,,BKN120,0.00,VWS V14.00,2013-02-18 09:17:00,
2013-02-18 01:21:00,38.8,36.2,30.06,SW,225,0.0,0.0,90,0.00,,BKN120,0.00,VWS V14.00,2013-02-18 09:21:00,
2013-02-18 01:22:00,38.8,36.2,30.06,SW,225,0.0,0.0,90,0.00,,BKN120,0.00,VWS V14.00,2013-02-18 09:22:00,
2013-02-18 01:26:00,38.7,36.0,30.06,SW,225,0.0,0.0,90,0.00,,BKN120,0.00,VWS V14.00,2013-02-18 09:26:00,
2013-02-18 01:27:00,38.7,36.0,30.06,SW,225,0.0,0.0,90,0.00,,BKN120,0.00,VWS V14.00,2013-02-18 09:27:00,
2013-02-18 01:31:00,38.7,36.0,30.06,SSW,202,0.0,0.0,90,0.00,,BKN120,0.00,VWS V14.00,2013-02-18 09:31:00,
2013-02-18 01:32:00,38.5,35.8,30.06,SSW,202,0.0,0.0,90,0.00,,OVC110,0.00,VWS V14.00,2013-02-18 09:32:00,
2013-02-18 01:36:00,38.5,35.8,30.06,SSW,202,0.0,0.0,90,0.00,,OVC110,0.00,VWS V14.00,2013-02-18 09:36:00,
2013-02-18 01:37:00,38.5,35.8,30.06,SSW,202,0.0,0.0,90,0.00,,OVC110,0.00,VWS V14.00,2013-02-18 09:37:00,
2013-02-18 01:41:00,38.5,35.8,30.06,WSW,248,0.0,0.0,90,0.00,,OVC110,0.00,VWS V14.00,2013-02-18 09:41:00,
2013-02-18 01:42:00,38.5,35.8,30.06,WSW,248,0.0,0.0,90,0.00,,OVC110,0.00,VWS V14.00,2013-02-18 09:42:00,
2013-02-18 01:46:00,38.5,36.1,30.06,WSW,248,0.0,0.0,91,0.00,,OVC110,0.00,VWS V14.00,2013-02-18 09:46:00,
2013-02-18 01:47:00,38.5,36.1,30.06,WSW,248,0.0,0.0,91,0.00,,OVC110,0.00,VWS V14.00,2013-02-18 09:47:00,
2013-02-18 01:51:00,38.5,36.1,30.06,WSW,248,0.0,0.0,91,0.00,,OVC110,0.00,VWS V14.00,2013-02-18 09:51:00,
2013-02-18 01:52:00,38.5,36.1,30.06,WSW,248,0.0,0.0,91,0.00,,OVC110,0.00,VWS V14.00,2013-02-18 09:52:00,
2013-02-18 01:56:00,38.5,36.1,30.06,WSW,248,0.0,0.0,91,0.00,,OVC110,0.00,VWS V14.00,2013-02-18 09:56:00,
2013-02-18 01:57:00,38.5,36.1,30.06,WSW,248,0.0,0.0,91,0.00,,OVC110,0.00,VWS V14.00,2013-02-18 09:57:00,
2013-02-18 02:01:00,38.5,36.1,30.06,WSW,248,0.0,0.0,91,0.00,,OVC110,0.00,VWS V14.00,2013-02-18 10:01:00,
2013-02-18 02:02:00,38.5,36.1,30.06,WSW,248,0.0,0.0,91,0.00,,OVC110,0.00,VWS V14.00,2013-02-18 10:02:00,
2013-02-18 02:06:00,38.5,36.1,30.06,WSW,248,0.0,0.0,91,0.00,,OVC110,0.00,VWS V14.00,2013-02-18 10:06:00,
2013-02-18 02:07:00,38.5,36.1,30.06,WSW,248,0.0,0.0,91,0.00,,OVC110,0.00,VWS V14.00,2013-02-18 10:07:00,
2013-02-18 02:12:00,38.5,36.1,30.06,WSW,248,0.0,0.0,91,0.00,,OVC110,0.00,VWS V14.00,2013-02-18 10:12:00,
2013-02-18 02:17:00,38.5,36.1,30.06,WSW,248,0.0,0.0,91,0.00,,OVC110,0.00,VWS V14.00,2013-02-18 10:17:00,
2013-02-18 02:22:00,38.5,36.1,30.06,WSW,248,0.0,0.0,91,0.00,,OVC110,0.00,VWS V14.00,2013-02-18 10:22:00,
2013-02-18 02:27:00,38.5,36.1,30.06,WSW,248,0.0,0.0,91,0.00,,OVC110,0.00,VWS V14.00,2013-02-18 10:27:00,
2013-02-18 02:32:00,38.5,36.1,30.06,ESE,112,0.0,0.0,91,0.00,,BKN110,0.00,VWS V14.00,2013-02-18 10:32:00,
2013-02-18 02:37:00,38.5,36.1,30.06,WSW,248,0.0,0.0,91,0.00,,BKN110,0.00,VWS V14.00,2013-02-18 10:37:00,
2013-02-18 02:38:00,38.5,36.4,30.06,WSW,248,0.0,0.0,92,0.00,,BKN110,0.00,VWS V14.00,2013-02-18 10:38:00,
2013-02-18 02:42:00,38.5,36.4,30.06,WSW,248,0.0,0.0,92,0.00,,BKN110,0.00,VWS V14.00,2013-02-18 10:42:00,
2013-02-18 02:43:00,38.5,36.4,30.06,WSW,248,0.0,0.0,92,0.00,,BKN110,0.00,VWS V14.00,2013-02-18 10:43:00,
2013-02-18 02:47:00,38.5,36.4,30.06,WSW,248,0.0,0.0,92,0.00,,BKN110,0.00,VWS V14.00,2013-02-18 10:47:00,
2013-02-18 02:48:00,38.5,36.4,30.06,WNW,292,0.0,0.0,92,0.00,,BKN120,0.00,VWS V14.00,2013-02-18 10:48:00,
2013-02-18 02:52:00,38.5,36.4,30.06,WNW,292,0.0,0.0,92,0.00,,BKN120,0.00,VWS V14.00,2013-02-18 10:52:00,
2013-02-18 02:53:00,38.5,36.4,30.06,WNW,292,0.0,0.0,92,0.00,,BKN120,0.00,VWS V14.00,2013-02-18 10:53:00,
2013-02-18 02:57:00,38.5,36.4,30.06,WSW,248,0.0,0.0,92,0.00,,BKN120,0.00,VWS V14.00,2013-02-18 10:57:00,
2013-02-18 02:58:00,38.5,36.4,30.06,WSW,248,0.0,0.0,92,0.00,,BKN120,0.00,VWS V14.00,2013-02-18 10:58:00,
2013-02-18 03:02:00,38.5,36.4,30.03,WSW,248,0.0,0.0,92,0.00,,BKN120,0.00,VWS V14.00,2013-02-18 11:02:00,
2013-02-18 03:03:00,38.5,36.4,30.03,WSW,248,0.0,0.0,92,0.00,,BKN120,0.00,VWS V14.00,2013-02-18 11:03:00,
2013-02-18 03:07:00,38.5,36.4,30.03,WSW,248,0.0,0.0,92,0.00,,BKN120,0.00,VWS V14.00,2013-02-18 11:07:00,
2013-02-18 03:08:00,38.5,36.4,30.03,ESE,112,0.0,0.0,92,0.00,,BKN120,0.00,VWS V14.00,2013-02-18 11:08:00,
2013-02-18 03:13:00,38.5,36.4,30.03,ESE,112,0.0,0.0,92,0.00,,BKN120,0.00,VWS V14.00,2013-02-18 11:13:00,
2013-02-18 03:18:00,38.3,36.2,30.03,ESE,112,0.0,0.0,92,0.00,,BKN120,0.00,VWS V14.00,2013-02-18 11:18:00,
2013-02-18 03:23:00,38.3,36.2,30.03,ESE,112,0.0,0.0,92,0.00,,BKN120,0.00,VWS V14.00,2013-02-18 11:23:00,
2013-02-18 03:28:00,38.1,36.0,30.03,ESE,112,0.0,0.0,92,0.00,,BKN120,0.00,VWS V14.00,2013-02-18 11:28:00,
2013-02-18 03:33:00,38.1,36.0,30.03,ESE,112,0.0,0.0,92,0.00,,OVC100,0.00,VWS V14.00,2013-02-18 11:33:00,
2013-02-18 03:38:00,37.9,35.8,30.03,ESE,112,0.0,0.0,92,0.00,,OVC100,0.00,VWS V14.00,2013-02-18 11:38:00,
2013-02-18 03:39:00,37.9,35.8,30.03,ESE,112,0.0,0.0,92,0.00,,OVC100,0.00,VWS V14.00,2013-02-18 11:39:00,
2013-02-18 03:43:00,37.9,35.8,30.03,ESE,112,0.0,0.0,92,0.00,,OVC100,0.00,VWS V14.00,2013-02-18 11:43:00,
2013-02-18 03:44:00,37.8,35.7,30.03,ESE,112,0.0,0.0,92,0.00,,OVC100,0.00,VWS V14.00,2013-02-18 11:44:00,
2013-02-18 03:48:00,37.9,35.8,30.03,ESE,112,0.0,0.0,92,0.00,,BKN110,0.00,VWS V14.00,2013-02-18 11:48:00,
2013-02-18 03:49:00,37.9,35.8,30.03,ESE,112,0.0,0.0,92,0.00,,BKN110,0.00,VWS V14.00,2013-02-18 11:49:00,
2013-02-18 03:53:00,37.8,35.7,30.03,SE,135,0.0,0.0,92,0.00,,BKN110,0.00,VWS V14.00,2013-02-18 11:53:00,
2013-02-18 03:54:00,37.8,35.7,30.03,SE,135,0.0,0.0,92,0.00,,BKN110,0.00,VWS V14.00,2013-02-18 11:54:00,
2013-02-18 03:58:00,37.9,35.8,30.03,ESE,112,0.0,0.0,92,0.00,,BKN110,0.00,VWS V14.00,2013-02-18 11:58:00,
2013-02-18 03:59:00,37.9,35.8,30.03,ESE,112,0.0,0.0,92,0.00,,BKN110,0.00,VWS V14.00,2013-02-18 11:59:00,
2013-02-18 04:03:00,37.9,35.8,30.03,ESE,112,0.0,0.0,92,0.00,,BKN110,0.00,VWS V14.00,2013-02-18 12:03:00,
2013-02-18 04:04:00,37.9,35.8,30.03,ESE,112,0.0,0.0,92,0.00,,BKN110,0.00,VWS V14.00,2013-02-18 12:04:00,
2013-02-18 04:08:00,37.9,35.8,30.03,ESE,112,0.0,0.0,92,0.00,,BKN110,0.00,VWS V14.00,2013-02-18 12:08:00,
2013-02-18 04:09:00,37.9,35.8,30.03,ESE,112,0.0,0.0,92,0.00,,BKN110,0.00,VWS V14.00,2013-02-18 12:09:00,
2013-02-18 04:13:00,37.8,35.7,30.03,ESE,112,0.0,0.0,92,0.00,,BKN110,0.00,VWS V14.00,2013-02-18 12:13:00,
2013-02-18 04:14:00,37.8,35.7,30.03,ESE,112,0.0,0.0,92,0.00,,BKN110,0.00,VWS V14.00,2013-02-18 12:14:00,
2013-02-18 04:19:00,37.9,35.8,30.00,ESE,112,0.0,0.0,92,0.00,,BKN110,0.00,VWS V14.00,2013-02-18 12:19:00,
2013-02-18 04:23:00,37.9,35.8,30.00,ESE,112,0.0,0.0,92,0.00,,BKN110,0.00,VWS V14.00,2013-02-18 12:23:00,
2013-02-18 04:24:00,37.9,35.8,30.00,ESE,112,0.0,0.0,92,0.00,,BKN110,0.00,VWS V14.00,2013-02-18 12:24:00,
2013-02-18 04:28:00,37.9,36.1,30.00,SSE,158,0.0,0.0,93,0.00,,BKN110,0.00,VWS V14.00,2013-02-18 12:28:00,
2013-02-18 04:29:00,37.9,36.1,30.00,SSE,158,0.0,0.0,93,0.00,,BKN110,0.00,VWS V14.00,2013-02-18 12:29:00,
2013-02-18 04:34:00,37.9,36.1,30.00,SSE,158,0.0,0.0,93,0.00,,BKN010,0.00,VWS V14.00,2013-02-18 12:34:00,
2013-02-18 04:39:00,38.1,36.3,30.00,SSE,158,0.0,0.0,93,0.00,,BKN010,0.00,VWS V14.00,2013-02-18 12:39:00,
2013-02-18 04:44:00,37.9,36.1,30.00,SSE,158,0.0,0.0,93,0.00,,BKN010,0.00,VWS V14.00,2013-02-18 12:44:00,
2013-02-18 04:49:00,37.9,36.1,30.00,SSE,158,0.0,0.0,93,0.00,,OVC110,0.00,VWS V14.00,2013-02-18 12:49:00,
2013-02-18 04:54:00,38.1,36.3,30.00,SSE,158,0.0,0.0,93,0.00,,OVC110,0.00,VWS V14.00,2013-02-18 12:54:00,
2013-02-18 04:59:00,37.9,36.1,30.00,SSE,158,0.0,0.0,93,0.00,,OVC110,0.00,VWS V14.00,2013-02-18 12:59:00,
2013-02-18 05:04:00,37.9,36.1,30.00,SSE,158,0.0,0.0,93,0.00,,OVC110,0.00,VWS V14.00,2013-02-18 13:04:00,
2013-02-18 05:09:00,37.9,36.1,30.00,West,270,0.0,0.0,93,0.00,,OVC110,0.00,VWS V14.00,2013-02-18 13:09:00,
2013-02-18 05:14:00,37.9,36.1,30.00,West,270,0.0,0.0,93,0.00,,OVC110,0.00,VWS V14.00,2013-02-18 13:14:00,
2013-02-18 05:19:00,37.9,36.1,30.00,WSW,248,0.0,0.0,93,0.00,,OVC110,0.00,VWS V14.00,2013-02-18 13:19:00,
2013-02-18 05:24:00,37.8,35.9,30.00,WSW,248,0.0,0.0,93,0.00,,OVC110,0.00,VWS V14.00,2013-02-18 13:24:00,
2013-02-18 05:25:00,37.8,35.9,30.00,WSW,248,0.0,0.0,93,0.00,,OVC110,0.00,VWS V14.00,2013-02-18 13:25:00,
2013-02-18 05:29:00,37.8,35.9,30.00,WSW,248,0.0,0.0,93,0.00,,OVC110,0.00,VWS V14.00,2013-02-18 13:29:00,
2013-02-18 05:30:00,37.8,35.9,30.00,WSW,248,0.0,0.0,93,0.00,,OVC110,0.00,VWS V14.00,2013-02-18 13:30:00,
2013-02-18 05:34:00,37.8,35.9,30.00,WSW,248,0.0,0.0,93,0.00,,OVC010,0.00,VWS V14.00,2013-02-18 13:34:00,
2013-02-18 05:35:00,37.8,35.9,30.00,WSW,248,0.0,0.0,93,0.00,,OVC010,0.00,VWS V14.00,2013-02-18 13:35:00,
2013-02-18 05:39:00,37.8,35.9,30.00,WSW,248,0.0,0.0,93,0.00,,OVC010,0.00,VWS V14.00,2013-02-18 13:39:00,
2013-02-18 05:40:00,37.8,35.9,30.00,WSW,248,0.0,0.0,93,0.00,,OVC010,0.00,VWS V14.00,2013-02-18 13:40:00,
2013-02-18 05:44:00,37.8,35.9,30.00,WSW,248,0.0,0.0,93,0.00,,OVC010,0.00,VWS V14.00,2013-02-18 13:44:00,
2013-02-18 05:45:00,37.8,35.9,30.00,WSW,248,0.0,0.0,93,0.00,,OVC010,0.00,VWS V14.00,2013-02-18 13:45:00,
2013-02-18 05:49:00,37.8,35.9,30.00,WSW,248,0.0,0.0,93,0.00,,OVC006,0.00,VWS V14.00,2013-02-18 13:49:00,
2013-02-18 05:50:00,37.8,35.9,30.00,WSW,248,0.0,0.0,93,0.00,,OVC006,0.00,VWS V14.00,2013-02-18 13:50:00,
2013-02-18 05:54:00,37.8,35.9,30.00,WSW,248,0.0,0.0,93,0.00,,OVC006,0.00,VWS V14.00,2013-02-18 13:54:00,
2013-02-18 05:55:00,37.8,35.9,30.00,WSW,248,0.0,0.0,93,0.00,,OVC006,0.00,VWS V14.00,2013-02-18 13:55:00,
2013-02-18 05:59:00,37.6,35.7,30.00,SSW,202,0.0,0.0,93,0.00,,OVC006,0.00,VWS V14.00,2013-02-18 13:59:00,
2013-02-18 06:00:00,37.6,35.7,30.00,SSW,202,0.0,0.0,93,0.00,,OVC006,0.00,VWS V14.00,2013-02-18 14:00:00,
2013-02-18 06:04:00,37.4,35.3,30.00,WSW,248,0.0,0.0,92,0.00,,OVC006,0.00,VWS V14.00,2013-02-18 14:04:00,
2013-02-18 06:05:00,37.4,35.3,30.00,WSW,248,0.0,0.0,92,0.00,,OVC006,0.00,VWS V14.00,2013-02-18 14:05:00,
2013-02-18 06:09:00,37.4,35.3,30.00,WSW,248,0.0,0.0,92,0.00,,OVC006,0.00,VWS V14.00,2013-02-18 14:09:00,
2013-02-18 06:10:00,37.4,35.3,30.00,WSW,248,0.0,0.0,92,0.00,,OVC006,0.00,VWS V14.00,2013-02-18 14:10:00,
2013-02-18 06:14:00,37.4,35.3,30.00,ESE,112,0.0,0.0,92,0.00,,OVC006,0.00,VWS V14.00,2013-02-18 14:14:00,
2013-02-18 06:15:00,37.4,35.3,30.00,ESE,112,0.0,0.0,92,0.00,,OVC006,0.00,VWS V14.00,2013-02-18 14:15:00,
2013-02-18 06:19:00,37.4,35.3,30.00,ESE,112,0.0,0.0,92,0.00,,OVC006,0.00,VWS V14.00,2013-02-18 14:19:00,
2013-02-18 06:20:00,37.4,35.3,30.00,ESE,112,0.0,0.0,92,0.00,,OVC006,0.00,VWS V14.00,2013-02-18 14:20:00,
2013-02-18 06:24:00,37.4,35.3,30.00,ESE,112,0.0,0.0,92,0.00,,OVC006,0.00,VWS V14.00,2013-02-18 14:24:00,
2013-02-18 06:25:00,37.4,35.3,30.00,ESE,112,0.0,0.0,92,0.00,,OVC006,0.00,VWS V14.00,2013-02-18 14:25:00,
2013-02-18 06:29:00,37.2,35.4,30.00,ESE,112,0.0,0.0,93,0.00,,OVC006,0.00,VWS V14.00,2013-02-18 14:29:00,
2013-02-18 06:30:00,37.2,35.4,30.00,ESE,112,0.0,0.0,93,0.00,,OVC006,0.00,VWS V14.00,2013-02-18 14:30:00,
2013-02-18 06:34:00,36.9,35.0,30.00,East,90,0.0,0.0,93,0.00,,OVC006,0.00,VWS V14.00,2013-02-18 14:34:00,
2013-02-18 06:35:00,36.9,35.0,30.00,East,90,0.0,0.0,93,0.00,,OVC006,0.00,VWS V14.00,2013-02-18 14:35:00,
2013-02-18 06:39:00,36.9,35.0,30.00,East,90,0.0,0.0,93,0.00,,OVC006,0.00,VWS V14.00,2013-02-18 14:39:00,
2013-02-18 06:40:00,36.9,35.0,30.00,East,90,0.0,0.0,93,0.00,,OVC006,0.00,VWS V14.00,2013-02-18 14:40:00,
2013-02-18 06:44:00,36.9,35.0,30.00,East,90,0.0,0.0,93,0.00,,OVC006,0.00,VWS V14.00,2013-02-18 14:44:00,
2013-02-18 06:45:00,36.9,35.0,30.00,East,90,0.0,0.0,93,0.00,,OVC006,0.00,VWS V14.00,2013-02-18 14:45:00,
2013-02-18 06:49:00,36.9,35.0,30.00,East,90,0.0,0.0,93,0.00,,OVC006,0.00,VWS V14.00,2013-02-18 14:49:00,
2013-02-18 06:50:00,36.9,35.0,30.00,East,90,0.0,0.0,93,0.00,,OVC006,0.00,VWS V14.00,2013-02-18 14:50:00,
2013-02-18 06:51:00,36.9,35.0,30.00,East,90,0.0,0.0,93,0.00,,OVC006,0.00,VWS V14.00,2013-02-18 14:51:00,
2013-02-18 06:54:00,36.9,35.0,30.00,East,90,0.0,0.0,93,0.00,,OVC006,0.00,VWS V14.00,2013-02-18 14:54:00,
2013-02-18 06:56:00,36.9,35.0,30.00,East,90,0.0,0.0,93,0.00,,OVC006,0.00,VWS V14.00,2013-02-18 14:56:00,
2013-02-18 06:59:00,36.7,34.8,30.00,East,90,0.0,0.0,93,0.00,,OVC006,0.00,VWS V14.00,2013-02-18 14:59:00,
2013-02-18 07:01:00,36.7,34.8,30.00,East,90,0.0,0.0,93,0.00,,OVC006,0.00,VWS V14.00,2013-02-18 15:01:00,
2013-02-18 07:04:00,36.7,34.8,30.00,East,90,0.0,0.0,93,0.00,,OVC006,0.00,VWS V14.00,2013-02-18 15:04:00,
2013-02-18 07:06:00,36.7,34.8,30.00,East,90,0.0,0.0,93,0.00,,OVC006,0.00,VWS V14.00,2013-02-18 15:06:00,
2013-02-18 07:10:00,36.9,35.0,30.00,East,90,0.0,0.0,93,0.00,,OVC006,0.00,VWS V14.00,2013-02-18 15:10:00,
2013-02-18 07:11:00,36.9,35.0,30.00,East,90,0.0,0.0,93,0.00,,OVC006,0.00,VWS V14.00,2013-02-18 15:11:00,
2013-02-18 07:15:00,37.0,35.5,30.00,East,90,0.0,0.0,94,0.00,,OVC006,0.00,VWS V14.00,2013-02-18 15:15:00,
2013-02-18 07:16:00,37.0,35.5,30.00,East,90,0.0,0.0,94,0.00,,OVC006,0.00,VWS V14.00,2013-02-18 15:16:00,
2013-02-18 07:20:00,37.0,35.5,30.00,East,90,0.0,0.0,94,0.00,,OVC006,0.00,VWS V14.00,2013-02-18 15:20:00,
2013-02-18 07:21:00,37.0,35.5,30.00,East,90,0.0,0.0,94,0.00,,OVC006,0.00,VWS V14.00,2013-02-18 15:21:00,
2013-02-18 07:25:00,37.0,35.5,30.00,East,90,0.0,0.0,94,0.00,,OVC006,0.00,VWS V14.00,2013-02-18 15:25:00,
2013-02-18 07:26:00,37.0,35.5,30.00,East,90,0.0,0.0,94,0.00,,OVC006,0.00,VWS V14.00,2013-02-18 15:26:00,
2013-02-18 07:30:00,37.0,35.2,30.00,East,90,0.0,0.0,93,0.00,,OVC006,0.00,VWS V14.00,2013-02-18 15:30:00,
2013-02-18 07:31:00,37.0,35.5,30.00,East,90,0.0,0.0,94,0.00,,OVC006,0.00,VWS V14.00,2013-02-18 15:31:00,
2013-02-18 07:35:00,37.2,35.7,30.00,East,90,0.0,0.0,94,0.00,,OVC005,0.00,VWS V14.00,2013-02-18 15:35:00,
2013-02-18 07:36:00,37.2,35.7,30.00,East,90,0.0,0.0,94,0.00,,OVC005,0.00,VWS V14.00,2013-02-18 15:36:00,
2013-02-18 07:40:00,37.4,35.6,30.00,East,90,0.0,0.0,93,0.00,,OVC005,0.00,VWS V14.00,2013-02-18 15:40:00,
2013-02-18 07:41:00,37.2,35.7,30.00,East,90,0.0,0.0,94,0.00,,OVC005,0.00,VWS V14.00,2013-02-18 15:41:00,
2013-02-18 07:45:00,37.0,35.2,30.00,East,90,0.0,0.0,93,0.00,,OVC005,0.00,VWS V14.00,2013-02-18 15:45:00,
2013-02-18 07:46:00,37.0,35.2,30.00,East,90,0.0,0.0,93,0.00,,OVC005,0.00,VWS V14.00,2013-02-18 15:46:00,
2013-02-18 07:50:00,36.9,35.0,30.00,East,90,0.0,0.0,93,0.00,,OVC110,0.00,VWS V14.00,2013-02-18 15:50:00,
2013-02-18 07:51:00,36.9,35.0,30.00,East,90,0.0,0.0,93,0.00,,OVC110,0.00,VWS V14.00,2013-02-18 15:51:00,
2013-02-18 07:55:00,36.9,35.0,30.00,East,90,0.9,0.9,93,0.00,,OVC110,0.00,VWS V14.00,2013-02-18 15:55:00,
2013-02-18 07:56:00,36.9,35.0,30.00,East,90,4.0,4.0,93,0.00,,OVC110,0.00,VWS V14.00,2013-02-18 15:56:00,
2013-02-18 08:00:00,36.5,34.7,30.00,ESE,112,0.9,4.3,93,0.00,,OVC110,0.00,VWS V14.00,2013-02-18 16:00:00,
2013-02-18 08:01:00,36.5,34.7,30.00,SSW,202,1.3,4.3,93,0.00,,OVC110,0.00,VWS V14.00,2013-02-18 16:01:00,
2013-02-18 08:05:00,36.7,34.8,30.00,SSE,158,0.0,4.3,93,0.00,,OVC110,0.00,VWS V14.00,2013-02-18 16:05:00,
2013-02-18 08:06:00,36.7,34.8,30.00,East,90,0.0,4.3,93,0.00,,OVC110,0.00,VWS V14.00,2013-02-18 16:06:00,
2013-02-18 08:10:00,36.7,34.8,30.00,East,90,0.0,4.3,93,0.00,,OVC110,0.00,VWS V14.00,2013-02-18 16:10:00,
2013-02-18 08:11:00,36.7,34.8,30.00,East,90,0.0,4.3,93,0.00,,OVC110,0.00,VWS V14.00,2013-02-18 16:11:00,
2013-02-18 08:15:00,36.9,35.0,30.00,SE,135,0.0,4.3,93,0.00,,OVC110,0.00,VWS V14.00,2013-02-18 16:15:00,
2013-02-18 08:16:00,36.9,35.0,30.00,East,90,0.0,4.3,93,0.00,,OVC120,0.00,VWS V14.00,2013-02-18 16:16:00,
2013-02-18 08:20:00,37.2,35.4,30.00,WNW,292,0.0,1.3,93,0.00,,OVC110,0.00,VWS V14.00,2013-02-18 16:20:00,
2013-02-18 08:21:00,37.2,35.4,30.00,WNW,292,0.0,0.0,93,0.00,,OVC110,0.00,VWS V14.00,2013-02-18 16:21:00,
2013-02-18 08:25:00,37.6,35.5,30.00,NNW,338,0.0,0.0,92,0.00,,OVC110,0.00,VWS V14.00,2013-02-18 16:25:00,
2013-02-18 08:26:00,37.6,35.5,30.00,NNW,338,0.0,0.0,92,0.00,,OVC110,0.00,VWS V14.00,2013-02-18 16:26:00,
2013-02-18 08:30:00,37.9,35.8,30.00,NNE,22,0.0,0.0,92,0.00,,OVC110,0.00,VWS V14.00,2013-02-18 16:30:00,
2013-02-18 08:31:00,37.9,35.8,30.00,NNE,22,0.0,0.0,92,0.00,,OVC110,0.00,VWS V14.00,2013-02-18 16:31:00,
2013-02-18 08:35:00,38.3,36.2,30.00,NNE,22,0.0,0.0,92,0.00,,BKN120,0.00,VWS V14.00,2013-02-18 16:35:00,
2013-02-18 08:36:00,38.3,36.2,30.00,NE,45,0.0,0.0,92,0.00,,BKN120,0.00,VWS V14.00,2013-02-18 16:36:00,
2013-02-18 08:40:00,38.5,36.4,30.00,ENE,68,0.0,0.0,92,0.00,,BKN120,0.00,VWS V14.00,2013-02-18 16:40:00,
2013-02-18 08:41:00,38.5,36.4,30.00,SSE,158,0.0,0.0,92,0.00,,BKN120,0.00,VWS V14.00,2013-02-18 16:41:00,
2013-02-18 08:42:00,38.5,36.4,30.00,SSE,158,0.0,0.0,92,0.00,,BKN120,0.00,VWS V14.00,2013-02-18 16:42:00,
2013-02-18 08:45:00,38.5,36.4,30.00,East,90,2.5,2.5,92,0.00,,BKN120,0.00,VWS V14.00,2013-02-18 16:45:00,
2013-02-18 08:46:00,38.5,36.4,30.00,ESE,112,2.5,2.5,92,0.00,,BKN120,0.00,VWS V14.00,2013-02-18 16:46:00,
2013-02-18 08:47:00,38.5,36.4,30.00,ESE,112,2.5,2.5,92,0.00,,BKN120,0.00,VWS V14.00,2013-02-18 16:47:00,
2013-02-18 08:50:00,38.5,36.4,30.00,ENE,68,0.0,2.5,92,0.00,,BKN120,0.00,VWS V14.00,2013-02-18 16:50:00,
2013-02-18 08:51:00,38.5,36.4,30.00,ENE,68,1.3,2.5,92,0.00,,BKN120,0.00,VWS V14.00,2013-02-18 16:51:00,
2013-02-18 08:55:00,38.7,36.5,30.00,ENE,68,0.0,2.5,92,0.00,,BKN120,0.00,VWS V14.00,2013-02-18 16:55:00,
2013-02-18 08:56:00,38.7,36.5,30.00,ENE,68,0.0,1.3,92,0.00,,BKN120,0.00,VWS V14.00,2013-02-18 16:56:00,
2013-02-18 08:57:00,38.7,36.5,30.00,ENE,68,0.0,0.0,92,0.00,,BKN120,0.00,VWS V14.00,2013-02-18 16:57:00,
2013-02-18 09:00:00,38.7,36.5,30.00,East,90,0.0,0.0,92,0.00,,BKN120,0.00,VWS V14.00,2013-02-18 17:00:00,
2013-02-18 09:01:00,38.8,36.7,30.00,NNE,22,0.0,0.0,92,0.00,,BKN120,0.00,VWS V14.00,2013-02-18 17:01:00,
2013-02-18 09:05:00,38.8,36.4,30.00,East,90,2.0,2.0,91,0.00,,BKN120,0.00,VWS V14.00,2013-02-18 17:05:00,
2013-02-18 09:06:00,38.8,36.4,30.00,ENE,68,1.3,2.0,91,0.00,,BKN120,0.00,VWS V14.00,2013-02-18 17:06:00,
2013-02-18 09:07:00,38.8,36.4,30.00,ENE,68,1.3,2.0,91,0.00,,BKN120,0.00,VWS V14.00,2013-02-18 17:07:00,
2013-02-18 09:10:00,38.8,36.4,30.00,NE,45,2.5,2.5,91,0.00,,BKN120,0.00,VWS V14.00,2013-02-18 17:10:00,
2013-02-18 09:12:00,38.8,36.4,30.00,NE,45,1.1,2.5,91,0.00,,BKN120,0.00,VWS V14.00,2013-02-18 17:12:00,
2013-02-18 09:15:00,38.7,36.0,30.00,NE,45,2.7,5.6,90,0.00,,BKN120,0.00,VWS V14.00,2013-02-18 17:15:00,
2013-02-18 09:17:00,38.7,36.0,30.00,NE,45,2.0,5.6,90,0.00,,BKN120,0.00,VWS V14.00,2013-02-18 17:17:00,
2013-02-18 09:21:00,38.7,36.0,30.00,SE,135,0.0,5.6,90,0.00,,BKN120,0.00,VWS V14.00,2013-02-18 17:21:00,
2013-02-18 09:22:00,38.7,36.0,30.00,NE,45,2.2,5.6,90,0.00,,BKN120,0.00,VWS V14.00,2013-02-18 17:22:00,
2013-02-18 09:26:00,38.8,36.2,30.00,ESE,112,0.0,5.6,90,0.00,,BKN120,0.00,VWS V14.00,2013-02-18 17:26:00,
2013-02-18 09:27:00,38.8,36.2,30.00,ENE,68,0.0,5.6,90,0.00,,BKN120,0.00,VWS V14.00,2013-02-18 17:27:00,
2013-02-18 09:31:00,38.8,36.2,30.00,NW,315,2.0,3.6,90,0.00,,BKN120,0.00,VWS V14.00,2013-02-18 17:31:00,
2013-02-18 09:32:00,39.0,36.3,30.00,East,90,1.6,3.6,90,0.00,,OVC055,0.00,VWS V14.00,2013-02-18 17:32:00,
2013-02-18 09:36:00,39.0,36.3,30.00,NNE,22,0.9,3.6,90,0.00,,OVC005,0.00,VWS V14.00,2013-02-18 17:36:00,
2013-02-18 09:37:00,39.0,36.3,30.00,ENE,68,1.3,3.1,90,0.00,,OVC005,0.00,VWS V14.00,2013-02-18 17:37:00,
2013-02-18 09:41:00,39.2,36.2,30.00,ENE,68,5.6,5.6,89,0.00,,OVC005,0.00,VWS V14.00,2013-02-18 17:41:00,
2013-02-18 09:42:00,39.0,36.3,30.00,East,90,3.8,5.6,90,0.00,,OVC005,0.00,VWS V14.00,2013-02-18 17:42:00,
2013-02-18 09:46:00,39.0,36.1,30.00,ENE,68,2.2,5.6,89,0.00,,OVC005,0.00,VWS V14.00,2013-02-18 17:46:00,
2013-02-18 09:47:00,39.2,36.2,30.00,NE,45,0.0,5.6,89,0.00,,OVC005,0.00,VWS V14.00,2013-02-18 17:47:00,
2013-02-18 09:51:00,39.2,36.0,30.00,WNW,292,0.0,5.6,88,0.00,,OVC055,0.00,VWS V14.00,2013-02-18 17:51:00,
2013-02-18 09:52:00,39.2,36.0,30.00,NNW,338,0.0,5.6,88,0.00,,OVC055,0.00,VWS V14.00,2013-02-18 17:52:00,
2013-02-18 09:56:00,39.4,36.1,30.00,NE,45,1.3,5.6,88,0.00,,OVC055,0.00,VWS V14.00,2013-02-18 17:56:00,
2013-02-18 09:57:00,39.4,36.1,30.00,ENE,68,1.1,5.6,88,0.00,,OVC055,0.00,VWS V14.00,2013-02-18 17:57:00,
2013-02-18 10:01:00,39.4,36.1,30.00,NE,45,4.0,4.5,88,0.00,,OVC055,0.00,VWS V14.00,2013-02-18 18:01:00,
2013-02-18 10:02:00,39.2,36.0,30.00,WNW,292,0.0,4.5,88,0.00,,OVC055,0.00,VWS V14.00,2013-02-18 18:02:00,
2013-02-18 10:06:00,39.4,36.1,30.00,NE,45,2.7,4.5,88,0.00,,OVC055,0.00,VWS V14.00,2013-02-18 18:06:00,
2013-02-18 10:07:00,39.4,36.1,30.00,NNE,22,3.8,4.5,88,0.00,,OVC055,0.00,VWS V14.00,2013-02-18 18:07:00,
2013-02-18 10:11:00,39.6,36.0,30.00,ENE,68,2.5,4.5,87,0.00,,OVC055,0.00,VWS V14.00,2013-02-18 18:11:00,
2013-02-18 10:12:00,39.6,36.0,30.00,ENE,68,2.5,4.5,87,0.00,,OVC055,0.00,VWS V14.00,2013-02-18 18:12:00,
2013-02-18 10:16:00,39.6,36.0,30.00,ENE,68,4.0,4.0,87,0.00,,OVC055,0.00,VWS V14.00,2013-02-18 18:16:00,
2013-02-18 10:17:00,39.6,36.0,30.00,NE,45,2.7,4.0,87,0.00,,OVC055,0.00,VWS V14.00,2013-02-18 18:17:00,
2013-02-18 10:21:00,39.6,36.0,30.00,East,90,1.6,4.0,87,0.00,,OVC055,0.00,VWS V14.00,2013-02-18 18:21:00,
2013-02-18 10:22:00,39.6,36.0,30.00,East,90,1.3,4.0,87,0.00,,OVC055,0.00,VWS V14.00,2013-02-18 18:22:00,
2013-02-18 10:27:00,39.6,35.7,30.00,WSW,248,2.0,4.0,86,0.00,,OVC055,0.00,VWS V14.00,2013-02-18 18:27:00,
2013-02-18 10:32:00,39.7,35.9,29.97,ENE,68,0.9,4.0,86,0.00,,OVC055,0.00,VWS V14.00,2013-02-18 18:32:00,
2013-02-18 10:37:00,39.7,35.9,29.97,NE,45,4.9,4.9,86,0.00,,OVC055,0.00,VWS V14.00,2013-02-18 18:37:00,
2013-02-18 10:42:00,39.9,36.1,29.97,East,90,4.0,4.9,86,0.00,,OVC055,0.00,VWS V14.00,2013-02-18 18:42:00,
2013-02-18 10:43:00,39.9,36.1,29.97,East,90,4.0,4.9,86,0.00,,OVC055,0.00,VWS V14.00,2013-02-18 18:43:00,
2013-02-18 10:47:00,40.3,36.4,29.97,ENE,68,0.0,4.9,86,0.00,,OVC055,0.00,VWS V14.00,2013-02-18 18:47:00,
2013-02-18 10:48:00,40.3,36.4,29.97,NE,45,0.0,4.9,86,0.00,,OVC065,0.00,VWS V14.00,2013-02-18 18:48:00,
2013-02-18 10:52:00,40.6,36.8,29.97,East,90,0.0,4.9,86,0.00,,OVC065,0.00,VWS V14.00,2013-02-18 18:52:00,
2013-02-18 10:53:00,40.6,36.8,29.97,East,90,0.0,4.9,86,0.00,,OVC065,0.00,VWS V14.00,2013-02-18 18:53:00,
2013-02-18 10:57:00,41.2,37.3,29.97,East,90,0.0,4.0,86,0.00,,OVC065,0.00,VWS V14.00,2013-02-18 18:57:00,
2013-02-18 10:58:00,41.2,37.3,29.97,East,90,0.0,4.0,86,0.00,,OVC065,0.00,VWS V14.00,2013-02-18 18:58:00,
2013-02-18 11:02:00,41.5,37.4,29.97,NNW,338,1.3,2.0,85,0.00,,OVC065,0.00,VWS V14.00,2013-02-18 19:02:00,
2013-02-18 11:03:00,41.5,37.4,29.97,ESE,112,3.8,3.8,85,0.00,,OVC065,0.00,VWS V14.00,2013-02-18 19:03:00,
2013-02-18 11:07:00,41.2,37.0,29.97,ENE,68,1.6,3.8,85,0.00,,OVC065,0.00,VWS V14.00,2013-02-18 19:07:00,
2013-02-18 11:08:00,41.2,37.0,29.97,East,90,0.0,3.8,85,0.00,,OVC065,0.00,VWS V14.00,2013-02-18 19:08:00,
2013-02-18 11:12:00,41.4,37.2,29.97,ENE,68,2.0,3.8,85,0.00,,OVC065,0.00,VWS V14.00,2013-02-18 19:12:00,
2013-02-18 11:13:00,41.4,37.2,29.97,ENE,68,2.0,3.8,85,0.00,,OVC065,0.00,VWS V14.00,2013-02-18 19:13:00,
2013-02-18 11:17:00,41.5,37.1,29.97,NE,45,0.0,3.8,84,0.00,,OVC065,0.00,VWS V14.00,2013-02-18 19:17:00,
2013-02-18 11:18:00,41.5,37.1,29.97,NE,45,0.0,3.8,84,0.00,,OVC065,0.00,VWS V14.00,2013-02-18 19:18:00,
2013-02-18 11:23:00,41.7,37.2,29.97,East,90,0.0,3.1,84,0.00,,OVC065,0.00,VWS V14.00,2013-02-18 19:23:00,
2013-02-18 11:28:00,41.7,37.2,29.97,ESE,112,3.1,3.1,84,0.00,,OVC065,0.00,VWS V14.00,2013-02-18 19:28:00,
2013-02-18 11:33:00,41.5,37.1,29.97,SE,135,3.1,3.4,84,0.00,,OVC060,0.00,VWS V14.00,2013-02-18 19:33:00,
2013-02-18 11:38:00,41.5,37.1,29.97,NNW,338,2.7,5.6,84,0.00,,OVC060,0.00,VWS V14.00,2013-02-18 19:38:00,
2013-02-18 11:43:00,41.7,37.2,29.97,NE,45,0.9,5.6,84,0.00,,OVC060,0.00,VWS V14.00,2013-02-18 19:43:00,
2013-02-18 11:48:00,41.7,37.2,29.97,WNW,292,0.0,5.6,84,0.00,,BKN100,0.00,VWS V14.00,2013-02-18 19:48:00,
2013-02-18 11:53:00,41.9,37.4,29.97,ENE,68,3.1,5.6,84,0.00,,BKN100,0.00,VWS V14.00,2013-02-18 19:53:00,
2013-02-18 11:58:00,42.1,37.3,29.97,East,90,1.6,4.9,83,0.00,,BKN100,0.00,VWS V14.00,2013-02-18 19:58:00,
2013-02-18 12:03:00,42.1,37.3,29.94,ENE,68,2.5,4.0,83,0.00,,BKN100,0.00,VWS V14.00,2013-02-18 20:03:00,
2013-02-18 12:08:00,41.7,37.0,29.94,SE,135,3.8,3.8,83,0.00,,BKN100,0.00,VWS V14.00,2013-02-18 20:08:00,
2013-02-18 12:09:00,41.7,37.0,29.94,SE,135,3.8,3.8,83,0.00,,BKN100,0.00,VWS V14.00,2013-02-18 20:09:00,
2013-02-18 12:13:00,41.7,37.0,29.94,NE,45,1.3,5.4,83,0.00,,BKN100,0.00,VWS V14.00,2013-02-18 20:13:00,
2013-02-18 12:14:00,41.7,37.0,29.94,NE,45,1.3,5.4,83,0.00,,BKN100,0.00,VWS V14.00,2013-02-18 20:14:00,
2013-02-18 12:18:00,41.7,37.0,29.94,NE,45,4.0,6.3,83,0.00,,BKN100,0.00,VWS V14.00,2013-02-18 20:18:00,
2013-02-18 12:19:00,41.7,37.0,29.94,East,90,4.9,6.3,83,0.00,,BKN100,0.00,VWS V14.00,2013-02-18 20:19:00,
2013-02-18 12:23:00,42.1,37.3,29.94,NNE,22,2.9,6.9,83,0.00,,BKN100,0.00,VWS V14.00,2013-02-18 20:23:00,
2013-02-18 12:24:00,42.1,37.3,29.94,NNE,22,2.9,6.9,83,0.00,,BKN100,0.00,VWS V14.00,2013-02-18 20:24:00,
2013-02-18 12:28:00,42.6,37.8,29.94,ENE,68,2.9,6.9,83,0.00,,BKN100,0.00,VWS V14.00,2013-02-18 20:28:00,
2013-02-18 12:29:00,42.6,37.8,29.94,ENE,68,2.9,6.9,83,0.00,,BKN100,0.00,VWS V14.00,2013-02-18 20:29:00,
2013-02-18 12:34:00,42.4,37.0,29.94,NE,45,4.7,7.6,81,0.00,,OVC095,0.00,VWS V14.00,2013-02-18 20:34:00,
2013-02-18 12:39:00,42.8,37.4,29.94,WNW,292,4.3,7.6,81,0.00,,OVC095,0.00,VWS V14.00,2013-02-18 20:39:00,
2013-02-18 12:44:00,43.3,37.6,29.94,ENE,68,6.3,7.6,80,0.00,,OVC095,0.00,VWS V14.00,2013-02-18 20:44:00,
2013-02-18 12:49:00,43.3,37.3,29.94,NE,45,2.7,6.3,79,0.00,,OVC095,0.00,VWS V14.00,2013-02-18 20:49:00,
2013-02-18 12:54:00,43.2,37.1,29.94,East,90,2.5,6.3,79,0.00,,OVC095,0.00,VWS V14.00,2013-02-18 20:54:00,
2013-02-18 12:59:00,43.3,37.3,29.94,ENE,68,2.5,6.3,79,0.00,,OVC095,0.00,VWS V14.00,2013-02-18 20:59:00,
2013-02-18 13:04:00,43.3,37.3,29.94,East,90,7.4,7.4,79,0.00,,OVC060,0.00,VWS V14.00,2013-02-18 21:04:00,
2013-02-18 13:09:00,43.5,37.5,29.94,East,90,5.8,7.4,79,0.00,,OVC095,0.00,VWS V14.00,2013-02-18 21:09:00,
2013-02-18 13:10:00,43.5,37.1,29.94,East,90,5.8,7.4,78,0.00,,OVC095,0.00,VWS V14.00,2013-02-18 21:10:00,
2013-02-18 13:14:00,43.5,37.1,29.94,East,90,5.6,7.4,78,0.00,,OVC095,0.00,VWS V14.00,2013-02-18 21:14:00,
2013-02-18 13:15:00,43.5,37.1,29.94,ENE,68,2.7,7.4,78,0.00,,OVC095,0.00,VWS V14.00,2013-02-18 21:15:00,
2013-02-18 13:19:00,43.7,37.3,29.91,ENE,68,2.7,5.8,78,0.00,,OVC095,0.00,VWS V14.00,2013-02-18 21:19:00,
2013-02-18 13:20:00,43.7,37.3,29.91,ENE,68,2.7,5.8,78,0.00,,OVC095,0.00,VWS V14.00,2013-02-18 21:20:00,
2013-02-18 13:24:00,43.7,37.0,29.91,ENE,68,2.0,5.6,77,0.00,,OVC095,0.00,VWS V14.00,2013-02-18 21:24:00,
2013-02-18 13:25:00,43.7,37.0,29.91,East,90,2.7,5.6,77,0.00,,OVC095,0.00,VWS V14.00,2013-02-18 21:25:00,
2013-02-18 13:29:00,43.7,37.3,29.91,ENE,68,4.7,5.6,78,0.00,,OVC095,0.00,VWS V14.00,2013-02-18 21:29:00,
2013-02-18 13:30:00,43.7,37.3,29.91,East,90,5.8,5.8,78,0.00,,OVC095,0.00,VWS V14.00,2013-02-18 21:30:00,
2013-02-18 13:34:00,43.7,37.0,29.91,East,90,4.5,7.2,77,0.00,,OVC095,0.00,VWS V14.00,2013-02-18 21:34:00,
2013-02-18 13:35:00,43.7,37.0,29.91,East,90,4.5,7.2,77,0.00,,OVC095,0.00,VWS V14.00,2013-02-18 21:35:00,
2013-02-18 13:39:00,43.9,37.2,29.91,NNW,338,2.5,7.2,77,0.00,,OVC095,0.00,VWS V14.00,2013-02-18 21:39:00,
2013-02-18 13:40:00,44.1,37.3,29.91,NNW,338,2.5,7.2,77,0.00,,OVC095,0.00,VWS V14.00,2013-02-18 21:40:00,
2013-02-18 13:44:00,44.1,37.3,29.91,ENE,68,5.8,7.2,77,0.00,,OVC095,0.00,VWS V14.00,2013-02-18 21:44:00,
2013-02-18 13:45:00,44.1,37.3,29.91,ENE,68,3.8,7.2,77,0.00,,OVC095,0.00,VWS V14.00,2013-02-18 21:45:00,
2013-02-18 13:49:00,44.1,37.0,29.91,ESE,112,5.4,9.8,76,0.00,,OVC070,0.00,VWS V14.00,2013-02-18 21:49:00,
2013-02-18 13:50:00,43.9,36.8,29.91,ESE,112,7.4,9.8,76,0.00,,OVC070,0.00,VWS V14.00,2013-02-18 21:50:00,
2013-02-18 13:54:00,44.2,37.2,29.91,SE,135,6.3,9.8,76,0.00,,OVC070,0.00,VWS V14.00,2013-02-18 21:54:00,
2013-02-18 13:55:00,44.2,37.2,29.91,ESE,112,3.6,9.8,76,0.00,,OVC070,0.00,VWS V14.00,2013-02-18 21:55:00,
2013-02-18 13:59:00,44.6,37.5,29.91,ESE,112,4.0,9.8,76,0.00,,OVC070,0.00,VWS V14.00,2013-02-18 21:59:00,
2013-02-18 14:00:00,44.6,37.5,29.91,NNE,22,0.0,9.8,76,0.00,,OVC070,0.00,VWS V14.00,2013-02-18 22:00:00,
2013-02-18 14:04:00,44.8,37.7,29.91,ENE,68,5.4,9.8,76,0.00,,OVC095,0.00,VWS V14.00,2013-02-18 22:04:00,
2013-02-18 14:05:00,44.8,37.7,29.91,North,0,3.4,9.8,76,0.00,,OVC070,0.00,VWS V14.00,2013-02-18 22:05:00,
2013-02-18 14:09:00,45.0,37.5,29.88,NNE,22,5.6,7.2,75,0.00,,OVC070,0.00,VWS V14.00,2013-02-18 22:09:00,
2013-02-18 14:10:00,45.0,37.5,29.88,East,90,3.4,7.2,75,0.00,,OVC070,0.00,VWS V14.00,2013-02-18 22:10:00,
2013-02-18 14:11:00,45.0,37.5,29.88,East,90,3.4,7.2,75,0.00,,OVC070,0.00,VWS V14.00,2013-02-18 22:11:00,
2013-02-18 14:14:00,45.0,37.5,29.88,ESE,112,3.6,7.2,75,0.00,,OVC070,0.00,VWS V14.00,2013-02-18 22:14:00,
2013-02-18 14:15:00,45.0,37.5,29.88,ESE,112,3.6,7.2,75,0.00,,OVC070,0.00,VWS V14.00,2013-02-18 22:15:00,
2013-02-18 14:16:00,45.0,37.5,29.88,ESE,112,3.6,7.2,75,0.00,,OVC070,0.00,VWS V14.00,2013-02-18 22:16:00,
2013-02-18 14:19:00,44.8,36.7,29.88,NE,45,7.4,7.4,73,0.00,,OVC070,0.00,VWS V14.00,2013-02-18 22:19:00,
2013-02-18 14:20:00,44.8,36.7,29.88,WNW,292,4.9,7.4,73,0.00,,OVC070,0.00,VWS V14.00,2013-02-18 22:20:00,
2013-02-18 14:21:00,44.8,36.7,29.88,WNW,292,4.9,7.4,73,0.00,,OVC070,0.00,VWS V14.00,2013-02-18 22:21:00,
2013-02-18 14:24:00,45.1,37.0,29.88,ENE,68,7.6,7.6,73,0.00,,OVC070,0.00,VWS V14.00,2013-02-18 22:24:00,
2013-02-18 14:26:00,45.3,37.2,29.88,ENE,68,4.7,7.6,73,0.00,,OVC070,0.00,VWS V14.00,2013-02-18 22:26:00,
2013-02-18 14:29:00,45.3,36.8,29.88,WSW,248,7.6,10.3,72,0.00,,OVC070,0.00,VWS V14.00,2013-02-18 22:29:00,
2013-02-18 14:31:00,45.5,37.4,29.88,ENE,68,6.0,10.3,73,0.00,,OVC070,0.00,VWS V14.00,2013-02-18 22:31:00,
2013-02-18 14:34:00,45.5,37.4,29.88,ESE,112,2.0,10.3,73,0.00,,OVC090,0.00,VWS V14.00,2013-02-18 22:34:00,
2013-02-18 14:36:00,45.9,37.4,29.88,ESE,112,6.3,10.3,72,0.00,,OVC090,0.00,VWS V14.00,2013-02-18 22:36:00,
2013-02-18 14:39:00,45.9,37.4,29.88,East,90,2.7,10.3,72,0.00,,OVC090,0.00,VWS V14.00,2013-02-18 22:39:00,
2013-02-18 14:41:00,45.9,37.0,29.88,ENE,68,5.8,10.3,71,0.00,,OVC090,0.00,VWS V14.00,2013-02-18 22:41:00,
2013-02-18 14:44:00,45.7,36.5,29.88,East,90,9.4,10.3,70,0.00,,OVC090,0.00,VWS V14.00,2013-02-18 22:44:00,
2013-02-18 14:46:00,45.5,36.3,29.88,NNE,22,4.9,9.4,70,0.00,,OVC090,0.00,VWS V14.00,2013-02-18 22:46:00,
2013-02-18 14:49:00,45.5,36.3,29.88,East,90,4.3,9.4,70,0.00,,BKN090,0.00,VWS V14.00,2013-02-18 22:49:00,
2013-02-18 14:51:00,45.7,36.5,29.88,ESE,112,5.6,9.4,70,0.00,,BKN090,0.00,VWS V14.00,2013-02-18 22:51:00,
2013-02-18 14:54:00,45.9,36.3,29.88,NE,45,5.4,9.4,69,0.00,,BKN090,0.00,VWS V14.00,2013-02-18 22:54:00,
2013-02-18 14:56:00,45.5,35.6,29.88,NNE,22,4.0,9.4,68,0.00,,BKN090,0.00,VWS V14.00,2013-02-18 22:56:00,
2013-02-18 14:59:00,45.9,36.3,29.88,ENE,68,0.9,9.4,69,0.00,,BKN090,0.00,VWS V14.00,2013-02-18 22:59:00,
2013-02-18 15:01:00,45.9,36.3,29.88,NNE,22,2.5,9.4,69,0.00,,BKN090,0.00,VWS V14.00,2013-02-18 23:01:00,
2013-02-18 15:04:00,45.9,36.6,29.88,ENE,68,2.9,7.2,70,0.00,,BKN090,0.00,VWS V14.00,2013-02-18 23:04:00,
2013-02-18 15:06:00,45.7,36.5,29.88,ENE,68,2.9,7.2,70,0.00,,BKN090,0.00,VWS V14.00,2013-02-18 23:06:00,
2013-02-18 15:09:00,45.5,36.3,29.88,ENE,68,2.9,7.2,70,0.00,,BKN090,0.00,VWS V14.00,2013-02-18 23:09:00,
2013-02-18 15:11:00,45.5,36.3,29.88,ENE,68,2.2,7.2,70,0.00,,BKN090,0.00,VWS V14.00,2013-02-18 23:11:00,
2013-02-18 15:14:00,45.5,36.3,29.88,NNE,22,0.0,7.2,70,0.00,,BKN090,0.00,VWS V14.00,2013-02-18 23:14:00,
2013-02-18 15:16:00,45.5,36.3,29.88,NNE,22,0.0,6.0,70,0.00,,BKN090,0.00,VWS V14.00,2013-02-18 23:16:00,
2013-02-18 15:17:00,45.5,36.3,29.88,NNE,22,0.0,6.0,70,0.00,,BKN090,0.00,VWS V14.00,2013-02-18 23:17:00,
2013-02-18 15:19:00,45.5,36.3,29.88,WNW,292,1.6,7.2,70,0.00,,BKN090,0.00,VWS V14.00,2013-02-18 23:19:00,
2013-02-18 15:21:00,45.5,36.3,29.88,SSE,158,4.9,7.2,70,0.00,,BKN090,0.00,VWS V14.00,2013-02-18 23:21:00,
2013-02-18 15:22:00,45.5,36.3,29.88,ENE,68,4.9,7.2,70,0.00,,BKN090,0.00,VWS V14.00,2013-02-18 23:22:00,
2013-02-18 15:24:00,45.3,36.1,29.88,NNE,22,3.8,7.2,70,0.00,,BKN090,0.00,VWS V14.00,2013-02-18 23:24:00,
2013-02-18 15:26:00,45.3,36.1,29.88,East,90,2.5,7.2,70,0.00,,BKN090,0.00,VWS V14.00,2013-02-18 23:26:00,
2013-02-18 15:27:00,45.3,36.1,29.88,East,90,2.5,7.2,70,0.00,,BKN090,0.00,VWS V14.00,2013-02-18 23:27:00,
2013-02-18 15:29:00,45.3,36.1,29.88,East,90,4.0,7.2,70,0.00,,BKN090,0.00,VWS V14.00,2013-02-18 23:29:00,
2013-02-18 15:31:00,45.3,36.1,29.88,WSW,248,3.6,7.4,70,0.00,,BKN090,0.00,VWS V14.00,2013-02-18 23:31:00,
2013-02-18 15:32:00,45.3,36.1,29.88,WSW,248,3.6,7.4,70,0.00,,OVC080,0.00,VWS V14.00,2013-02-18 23:32:00,
2013-02-18 15:34:00,45.3,35.8,29.88,ENE,68,6.5,7.4,69,0.00,,OVC080,0.00,VWS V14.00,2013-02-18 23:34:00,
2013-02-18 15:36:00,45.3,35.8,29.88,SE,135,3.1,7.4,69,0.00,,OVC080,0.00,VWS V14.00,2013-02-18 23:36:00,
2013-02-18 15:37:00,45.3,35.8,29.88,SE,135,3.1,7.4,69,0.00,,OVC080,0.00,VWS V14.00,2013-02-18 23:37:00,
2013-02-18 15:39:00,45.3,35.8,29.88,ENE,68,3.4,7.4,69,0.00,,OVC080,0.00,VWS V14.00,2013-02-18 23:39:00,
2013-02-18 15:42:00,45.3,35.8,29.88,East,90,3.8,7.4,69,0.00,,OVC080,0.00,VWS V14.00,2013-02-18 23:42:00,
2013-02-18 15:44:00,45.3,35.8,29.88,ESE,112,2.9,7.4,69,0.00,,OVC080,0.00,VWS V14.00,2013-02-18 23:44:00,
2013-02-18 15:47:00,45.1,35.6,29.85,NNE,22,2.9,7.4,69,0.00,,OVC080,0.00,VWS V14.00,2013-02-18 23:47:00,
2013-02-18 15:49:00,45.1,35.2,29.85,NE,45,3.4,6.5,68,0.00,,OVC070,0.00,VWS V14.00,2013-02-18 23:49:00,
2013-02-18 15:52:00,45.0,35.0,29.85,East,90,4.3,5.6,68,0.00,,OVC070,0.00,VWS V14.00,2013-02-18 23:52:00,
2013-02-18 15:54:00,45.1,35.2,29.85,NNE,22,3.6,5.6,68,0.00,,OVC070,0.00,VWS V14.00,2013-02-18 23:54:00,
2013-02-18 15:57:00,45.0,35.0,29.85,East,90,3.4,7.6,68,0.00,,OVC070,0.00,VWS V14.00,2013-02-18 23:57:00,
2013-02-18 16:00:00,45.0,35.0,29.85,ESE,112,3.4,7.6,68,0.00,,OVC070,0.00,VWS V14.00,2013-02-19 00:00:00,
2013-02-18 16:02:00,45.0,35.0,29.85,ENE,68,4.3,7.6,68,0.00,,OVC070,0.00,VWS V14.00,2013-02-19 00:02:00,
2013-02-18 16:05:00,45.0,35.0,29.85,East,90,4.0,7.6,68,0.00,,OVC070,0.00,VWS V14.00,2013-02-19 00:05:00,
2013-02-18 16:07:00,45.0,35.0,29.85,NE,45,5.4,7.6,68,0.00,,OVC070,0.00,VWS V14.00,2013-02-19 00:07:00,
2013-02-18 16:10:00,45.0,35.0,29.85,NNE,22,2.7,7.6,68,0.00,,OVC070,0.00,VWS V14.00,2013-02-19 00:10:00,
2013-02-18 16:12:00,45.0,35.0,29.85,NE,45,1.1,7.6,68,0.00,,OVC070,0.00,VWS V14.00,2013-02-19 00:12:00,
2013-02-18 16:15:00,44.8,34.9,29.85,East,90,3.8,10.1,68,0.00,,OVC070,0.00,VWS V14.00,2013-02-19 00:15:00,
2013-02-18 16:17:00,44.8,34.5,29.85,ESE,112,6.3,10.1,67,0.00,,OVC070,0.00,VWS V14.00,2013-02-19 00:17:00,
2013-02-18 16:18:00,44.8,34.5,29.85,ESE,112,6.3,10.1,67,0.00,,OVC070,0.00,VWS V14.00,2013-02-19 00:18:00,
2013-02-18 16:20:00,44.8,34.5,29.85,East,90,3.6,10.1,67,0.00,,OVC070,0.00,VWS V14.00,2013-02-19 00:20:00,
2013-02-18 16:23:00,44.6,34.3,29.85,East,90,7.8,10.1,67,0.00,,OVC070,0.00,VWS V14.00,2013-02-19 00:23:00,
2013-02-18 16:25:00,44.6,34.3,29.85,NE,45,1.6,10.1,67,0.00,,OVC070,0.00,VWS V14.00,2013-02-19 00:25:00,
2013-02-18 16:28:00,44.6,34.3,29.85,NE,45,2.0,10.3,67,0.00,,OVC070,0.00,VWS V14.00,2013-02-19 00:28:00,
2013-02-18 16:30:00,44.6,34.3,29.85,NNE,22,3.8,10.3,67,0.00,,OVC070,0.00,VWS V14.00,2013-02-19 00:30:00,
2013-02-18 16:33:00,44.6,34.3,29.85,East,90,5.8,10.3,67,0.00,,OVC060,0.00,VWS V14.00,2013-02-19 00:33:00,
2013-02-18 16:35:00,44.6,34.3,29.85,SE,135,1.1,10.3,67,0.00,,OVC060,0.00,VWS V14.00,2013-02-19 00:35:00,
2013-02-18 16:38:00,44.6,34.7,29.85,East,90,4.3,10.3,68,0.00,,OVC060,0.00,VWS V14.00,2013-02-19 00:38:00,
2013-02-18 16:40:00,44.4,34.5,29.85,NE,45,4.7,10.3,68,0.00,,OVC060,0.00,VWS V14.00,2013-02-19 00:40:00,
2013-02-18 16:43:00,44.4,34.5,29.85,ENE,68,3.8,7.6,68,0.00,,OVC060,0.00,VWS V14.00,2013-02-19 00:43:00,
2013-02-18 16:45:00,44.4,34.5,29.85,NE,45,3.8,7.6,68,0.00,,OVC060,0.00,VWS V14.00,2013-02-19 00:45:00,
2013-02-18 16:48:00,44.4,34.5,29.85,NE,45,2.0,7.6,68,0.00,,OVC060,0.00,VWS V14.00,2013-02-19 00:48:00,
2013-02-18 16:51:00,44.4,34.9,29.85,East,90,4.9,8.7,69,0.00,,OVC050,0.00,VWS V14.00,2013-02-19 00:51:00,
2013-02-18 16:53:00,44.4,34.9,29.85,East,90,4.7,8.7,69,0.00,,OVC050,0.00,VWS V14.00,2013-02-19 00:53:00,
2013-02-18 16:56:00,44.2,34.7,29.85,ESE,112,3.4,8.7,69,0.00,,OVC050,0.00,VWS V14.00,2013-02-19 00:56:00,
2013-02-18 16:58:00,44.2,34.7,29.85,ESE,112,5.4,8.7,69,0.00,,OVC050,0.00,VWS V14.00,2013-02-19 00:58:00,
2013-02-18 17:01:00,44.2,34.7,29.85,ESE,112,2.5,8.7,69,0.00,,OVC050,0.00,VWS V14.00,2013-02-19 01:01:00,
2013-02-18 17:03:00,44.2,34.7,29.82,East,90,0.9,8.7,69,0.00,,OVC050,0.00,VWS V14.00,2013-02-19 01:03:00,
2013-02-18 17:06:00,44.2,34.7,29.82,NE,45,3.4,8.7,69,0.00,,OVC050,0.00,VWS V14.00,2013-02-19 01:06:00,
2013-02-18 17:08:00,44.2,34.7,29.82,ENE,68,2.9,8.7,69,0.00,,OVC050,0.00,VWS V14.00,2013-02-19 01:08:00,
2013-02-18 17:11:00,44.1,34.6,29.82,NE,45,3.1,7.6,69,0.00,,OVC050,0.00,VWS V14.00,2013-02-19 01:11:00,
2013-02-18 17:13:00,44.1,34.6,29.82,ENE,68,2.7,7.6,69,0.00,,OVC050,0.00,VWS V14.00,2013-02-19 01:13:00,
2013-02-18 17:16:00,44.1,34.6,29.82,ENE,68,2.5,7.6,69,0.00,,OVC050,0.00,VWS V14.00,2013-02-19 01:16:00,
2013-02-18 17:18:00,44.1,34.6,29.82,East,90,5.8,7.6,69,0.00,,OVC050,0.00,VWS V14.00,2013-02-19 01:18:00,
2013-02-18 17:21:00,43.9,34.4,29.82,East,90,2.0,6.5,69,0.00,,OVC050,0.00,VWS V14.00,2013-02-19 01:21:00,
2013-02-18 17:23:00,43.9,34.4,29.82,East,90,3.1,6.5,69,0.00,,OVC050,0.00,VWS V14.00,2013-02-19 01:23:00,
2013-02-18 17:24:00,43.9,34.4,29.82,East,90,3.1,6.5,69,0.00,,OVC050,0.00,VWS V14.00,2013-02-19 01:24:00,
2013-02-18 17:26:00,43.9,34.4,29.82,East,90,2.5,6.5,69,0.00,,OVC050,0.00,VWS V14.00,2013-02-19 01:26:00,
2013-02-18 17:28:00,43.9,34.4,29.82,NE,45,2.9,6.5,69,0.00,,OVC050,0.00,VWS V14.00,2013-02-19 01:28:00,
2013-02-18 17:29:00,43.9,34.4,29.82,NE,45,2.9,6.5,69,0.00,,OVC050,0.00,VWS V14.00,2013-02-19 01:29:00,
2013-02-18 17:31:00,43.7,34.2,29.82,East,90,5.8,5.8,69,0.00,,OVC050,0.00,VWS V14.00,2013-02-19 01:31:00,
2013-02-18 17:33:00,43.7,34.2,29.82,East,90,1.6,7.4,69,0.00,,OVC050,0.00,VWS V14.00,2013-02-19 01:33:00,
2013-02-18 17:34:00,43.7,34.2,29.82,ESE,112,3.6,7.4,69,0.00,,OVC050,0.00,VWS V14.00,2013-02-19 01:34:00,
2013-02-18 17:36:00,43.7,34.2,29.82,ENE,68,4.0,7.4,69,0.00,,OVC050,0.00,VWS V14.00,2013-02-19 01:36:00,
2013-02-18 17:38:00,43.7,34.2,29.82,WSW,248,2.0,7.4,69,0.00,,OVC050,0.00,VWS V14.00,2013-02-19 01:38:00,
2013-02-18 17:39:00,43.7,34.2,29.82,WSW,248,2.0,7.4,69,0.00,,OVC050,0.00,VWS V14.00,2013-02-19 01:39:00,
2013-02-18 17:42:00,43.7,34.2,29.82,ENE,68,3.1,7.4,69,0.00,,OVC050,0.00,VWS V14.00,2013-02-19 01:42:00,
2013-02-18 17:43:00,43.7,34.2,29.82,East,90,5.4,7.4,69,0.00,,OVC050,0.00,VWS V14.00,2013-02-19 01:43:00,
2013-02-18 17:44:00,43.7,34.2,29.82,East,90,6.3,7.4,69,0.00,,OVC050,0.00,VWS V14.00,2013-02-19 01:44:00,
2013-02-18 17:47:00,43.7,34.2,29.82,NE,45,2.5,7.4,69,0.00,,OVC050,0.00,VWS V14.00,2013-02-19 01:47:00,
2013-02-18 17:48:00,43.7,34.2,29.82,ESE,112,8.7,8.7,69,0.00,,OVC070,0.00,VWS V14.00,2013-02-19 01:48:00,
2013-02-18 17:49:00,43.7,34.2,29.82,East,90,4.3,8.7,69,0.00,,OVC070,0.00,VWS V14.00,2013-02-19 01:49:00,
2013-02-18 17:52:00,43.7,34.2,29.82,East,90,6.5,8.7,69,0.00,,OVC070,0.00,VWS V14.00,2013-02-19 01:52:00,
2013-02-18 17:54:00,43.7,34.2,29.82,East,90,6.0,8.7,69,0.00,,OVC070,0.00,VWS V14.00,2013-02-19 01:54:00,
2013-02-18 17:55:00,43.7,34.2,29.82,ESE,112,5.4,6.5,69,0.00,,OVC070,0.00,VWS V14.00,2013-02-19 01:55:00,
2013-02-18 17:57:00,43.5,34.4,29.82,East,90,4.9,6.5,70,0.00,,OVC070,0.00,VWS V14.00,2013-02-19 01:57:00,
2013-02-18 17:59:00,43.5,34.4,29.82,ESE,112,5.6,6.0,70,0.00,,OVC070,0.00,VWS V14.00,2013-02-19 01:59:00,
2013-02-18 18:00:00,43.5,34.0,29.82,ESE,112,2.5,6.0,69,0.00,,OVC070,0.00,VWS V14.00,2013-02-19 02:00:00,
2013-02-18 18:02:00,43.5,34.4,29.82,ESE,112,4.7,6.0,70,0.00,,OVC070,0.00,VWS V14.00,2013-02-19 02:02:00,
2013-02-18 18:04:00,43.5,34.4,29.82,East,90,2.9,6.0,70,0.00,,OVC070,0.00,VWS V14.00,2013-02-19 02:04:00,
2013-02-18 18:05:00,43.3,34.2,29.82,East,90,2.9,6.0,70,0.00,,OVC070,0.00,VWS V14.00,2013-02-19 02:05:00,
2013-02-18 18:07:00,43.3,34.2,29.82,NE,45,3.1,3.1,70,0.00,,OVC070,0.00,VWS V14.00,2013-02-19 02:07:00,
2013-02-18 18:09:00,43.3,34.2,29.82,ESE,112,2.9,3.1,70,0.00,,OVC070,0.00,VWS V14.00,2013-02-19 02:09:00,
2013-02-18 18:10:00,43.2,34.4,29.82,East,90,7.2,7.2,71,0.00,,OVC070,0.00,VWS V14.00,2013-02-19 02:10:00,
2013-02-18 18:12:00,43.2,34.4,29.82,East,90,4.0,7.2,71,0.00,,OVC070,0.00,VWS V14.00,2013-02-19 02:12:00,
2013-02-18 18:14:00,43.0,34.2,29.82,East,90,5.4,7.2,71,0.00,,OVC070,0.00,VWS V14.00,2013-02-19 02:14:00,
2013-02-18 18:15:00,43.0,34.2,29.82,ENE,68,3.4,7.2,71,0.00,,OVC070,0.00,VWS V14.00,2013-02-19 02:15:00,
2013-02-18 18:17:00,43.0,34.6,29.82,East,90,2.5,7.2,72,0.00,,OVC070,0.00,VWS V14.00,2013-02-19 02:17:00,
2013-02-18 18:19:00,43.0,34.6,29.79,East,90,3.4,7.2,72,0.00,,OVC070,0.00,VWS V14.00,2013-02-19 02:19:00,
2013-02-18 18:20:00,43.0,34.6,29.79,SSW,202,4.0,7.2,72,0.00,,OVC070,0.00,VWS V14.00,2013-02-19 02:20:00,
2013-02-18 18:22:00,43.0,34.6,29.79,ENE,68,3.1,5.6,72,0.00,,OVC070,0.00,VWS V14.00,2013-02-19 02:22:00,
2013-02-18 18:24:00,42.8,34.4,29.79,East,90,3.4,4.0,72,0.00,,OVC070,0.00,VWS V14.00,2013-02-19 02:24:00,
2013-02-18 18:25:00,42.8,34.4,29.79,SSE,158,2.5,4.0,72,0.00,,OVC070,0.00,VWS V14.00,2013-02-19 02:25:00,
2013-02-18 18:27:00,42.8,34.8,29.79,ESE,112,3.4,4.0,73,0.00,,OVC070,0.00,VWS V14.00,2013-02-19 02:27:00,
2013-02-18 18:29:00,42.8,34.8,29.79,ENE,68,5.6,5.8,73,0.00,,OVC070,0.00,VWS V14.00,2013-02-19 02:29:00,
2013-02-18 18:30:00,42.8,34.8,29.79,ESE,112,2.7,5.8,73,0.00,,OVC070,0.00,VWS V14.00,2013-02-19 02:30:00,
2013-02-18 18:32:00,42.6,34.6,29.79,East,90,3.4,5.8,73,0.00,,OVC046,0.00,VWS V14.00,2013-02-19 02:32:00,
2013-02-18 18:34:00,42.6,34.6,29.79,East,90,0.0,5.8,73,0.00,,OVC046,0.00,VWS V14.00,2013-02-19 02:34:00,
2013-02-18 18:35:00,42.6,34.9,29.79,SE,135,0.0,5.8,74,0.00,,OVC046,0.00,VWS V14.00,2013-02-19 02:35:00,
2013-02-18 18:37:00,42.4,34.8,29.79,East,90,3.1,5.8,74,0.00,,OVC046,0.00,VWS V14.00,2013-02-19 02:37:00,
2013-02-18 18:39:00,42.4,34.8,29.79,East,90,3.6,5.8,74,0.00,,OVC046,0.00,VWS V14.00,2013-02-19 02:39:00,
2013-02-18 18:40:00,42.4,34.8,29.79,East,90,6.0,6.0,74,0.00,,OVC046,0.00,VWS V14.00,2013-02-19 02:40:00,
2013-02-18 18:42:00,42.4,34.8,29.79,East,90,3.6,6.0,74,0.00,,OVC046,0.00,VWS V14.00,2013-02-19 02:42:00,
2013-02-18 18:44:00,42.3,34.6,29.79,ESE,112,5.4,6.0,74,0.00,,OVC046,0.00,VWS V14.00,2013-02-19 02:44:00,
2013-02-18 18:45:00,42.3,34.6,29.79,East,90,4.9,6.0,74,0.00,,OVC046,0.00,VWS V14.00,2013-02-19 02:45:00,
2013-02-18 18:47:00,42.3,34.6,29.79,East,90,3.1,6.0,74,0.00,,OVC046,0.00,VWS V14.00,2013-02-19 02:47:00,
2013-02-18 18:49:00,42.3,34.6,29.79,ESE,112,5.4,6.0,74,0.00,,OVC065,0.00,VWS V14.00,2013-02-19 02:49:00,
2013-02-18 18:50:00,42.3,34.9,29.79,East,90,2.9,6.0,75,0.00,,OVC065,0.00,VWS V14.00,2013-02-19 02:50:00,
2013-02-18 18:52:00,42.3,34.9,29.79,ESE,112,3.4,6.0,75,0.00,,OVC065,0.00,VWS V14.00,2013-02-19 02:52:00,
2013-02-18 18:54:00,42.3,34.9,29.79,East,90,3.6,8.1,75,0.00,,OVC065,0.00,VWS V14.00,2013-02-19 02:54:00,
2013-02-18 18:55:00,42.3,34.9,29.79,East,90,6.0,8.1,75,0.00,,OVC065,0.00,VWS V14.00,2013-02-19 02:55:00,
2013-02-18 18:57:00,42.3,34.9,29.79,East,90,4.3,8.1,75,0.00,,OVC065,0.00,VWS V14.00,2013-02-19 02:57:00,
2013-02-18 18:59:00,42.3,34.9,29.79,East,90,3.4,8.1,75,0.00,,OVC065,0.00,VWS V14.00,2013-02-19 02:59:00,
2013-02-18 19:00:00,42.3,34.9,29.79,East,90,3.4,8.1,75,0.00,,OVC065,0.00,VWS V14.00,2013-02-19 03:00:00,
2013-02-18 19:03:00,42.3,35.2,29.79,East,90,4.0,8.1,76,0.00,,OVC065,0.00,VWS V14.00,2013-02-19 03:03:00,
2013-02-18 19:05:00,42.3,35.2,29.79,ESE,112,4.3,8.1,76,0.00,,OVC065,0.00,VWS V14.00,2013-02-19 03:05:00,
2013-02-18 19:08:00,42.3,35.2,29.79,East,90,5.4,8.1,76,0.00,,OVC065,0.00,VWS V14.00,2013-02-19 03:08:00,
2013-02-18 19:10:00,42.3,35.2,29.79,East,90,5.6,8.1,76,0.00,,OVC065,0.00,VWS V14.00,2013-02-19 03:10:00,
2013-02-18 19:11:00,42.3,35.2,29.79,NE,45,3.1,8.1,76,0.00,,OVC065,0.00,VWS V14.00,2013-02-19 03:11:00,
2013-02-18 19:13:00,42.1,35.1,29.79,NE,45,1.3,6.0,76,0.00,,OVC065,0.00,VWS V14.00,2013-02-19 03:13:00,
2013-02-18 19:15:00,42.1,35.1,29.79,East,90,6.5,6.5,76,0.00,,OVC065,0.00,VWS V14.00,2013-02-19 03:15:00,
2013-02-18 19:16:00,42.1,35.1,29.79,East,90,4.9,6.5,76,0.00,,OVC065,0.00,VWS V14.00,2013-02-19 03:16:00,
2013-02-18 19:18:00,42.3,35.2,29.76,ESE,112,2.7,6.5,76,0.00,,OVC065,0.00,VWS V14.00,2013-02-19 03:18:00,
2013-02-18 19:20:00,42.3,35.2,29.76,East,90,2.9,6.5,76,0.00,,OVC065,0.00,VWS V14.00,2013-02-19 03:20:00,
2013-02-18 19:21:00,42.3,35.2,29.76,ENE,68,2.5,6.5,76,0.00,,OVC065,0.00,VWS V14.00,2013-02-19 03:21:00,
2013-02-18 19:23:00,42.3,35.2,29.76,East,90,2.0,6.5,76,0.00,,OVC065,0.00,VWS V14.00,2013-02-19 03:23:00,
2013-02-18 19:25:00,42.3,35.2,29.76,ESE,112,5.8,6.5,76,0.00,,OVC065,0.00,VWS V14.00,2013-02-19 03:25:00,
2013-02-18 19:26:00,42.3,35.2,29.76,ESE,112,5.8,6.5,76,0.00,,OVC065,0.00,VWS V14.00,2013-02-19 03:26:00,
2013-02-18 19:28:00,42.3,35.2,29.76,NE,45,2.9,6.5,76,0.00,,OVC065,0.00,VWS V14.00,2013-02-19 03:28:00,
2013-02-18 19:30:00,42.3,35.2,29.76,South,180,4.7,6.5,76,0.00,,OVC065,0.00,VWS V14.00,2013-02-19 03:30:00,
2013-02-18 19:31:00,42.3,35.2,29.76,NNE,22,3.8,6.5,76,0.00,,OVC050,0.00,VWS V14.00,2013-02-19 03:31:00,
2013-02-18 19:34:00,42.3,35.2,29.76,East,90,5.4,5.8,76,0.00,,OVC031,0.00,VWS V14.00,2013-02-19 03:34:00,
2013-02-18 19:35:00,42.3,35.2,29.76,ESE,112,3.4,5.8,76,0.00,,OVC031,0.00,VWS V14.00,2013-02-19 03:35:00,
2013-02-18 19:36:00,42.3,35.2,29.76,ESE,112,3.4,5.8,76,0.00,,OVC031,0.00,VWS V14.00,2013-02-19 03:36:00,
2013-02-18 19:39:00,42.3,35.2,29.76,ENE,68,3.6,5.8,76,0.00,,OVC031,0.00,VWS V14.00,2013-02-19 03:39:00,
2013-02-18 19:40:00,42.3,35.2,29.76,ESE,112,5.8,5.8,76,0.00,,OVC031,0.00,VWS V14.00,2013-02-19 03:40:00,
2013-02-18 19:41:00,42.3,35.2,29.76,ESE,112,5.8,5.8,76,0.00,,OVC031,0.00,VWS V14.00,2013-02-19 03:41:00,
2013-02-18 19:44:00,42.3,35.2,29.76,ESE,112,2.0,5.8,76,0.00,,OVC031,0.00,VWS V14.00,2013-02-19 03:44:00,
2013-02-18 19:45:00,42.3,35.2,29.76,ENE,68,2.5,5.8,76,0.00,,OVC031,0.00,VWS V14.00,2013-02-19 03:45:00,
2013-02-18 19:46:00,42.3,35.2,29.76,ENE,68,1.6,5.8,76,0.00,,OVC031,0.00,VWS V14.00,2013-02-19 03:46:00,
2013-02-18 19:49:00,42.4,35.4,29.76,East,90,3.1,5.8,76,0.00,,OVC048,0.00,VWS V14.00,2013-02-19 03:49:00,
2013-02-18 19:50:00,42.4,35.4,29.76,NE,45,3.4,5.8,76,0.00,,OVC048,0.00,VWS V14.00,2013-02-19 03:50:00,
2013-02-18 19:51:00,42.3,35.6,29.76,NE,45,4.0,5.8,77,0.00,,OVC048,0.00,VWS V14.00,2013-02-19 03:51:00,
2013-02-18 19:54:00,42.3,35.6,29.76,ENE,68,3.8,5.8,77,0.00,,OVC048,0.00,VWS V14.00,2013-02-19 03:54:00,
2013-02-18 19:55:00,42.3,35.6,29.76,ENE,68,0.0,5.8,77,0.00,,OVC048,0.00,VWS V14.00,2013-02-19 03:55:00,
2013-02-18 19:56:00,42.3,35.6,29.76,WNW,292,0.0,5.8,77,0.00,,OVC048,0.00,VWS V14.00,2013-02-19 03:56:00,
2013-02-18 19:59:00,42.1,35.4,29.76,NNE,22,2.7,5.6,77,0.00,,OVC048,0.00,VWS V14.00,2013-02-19 03:59:00,
2013-02-18 20:00:00,42.1,35.4,29.76,SE,135,0.9,5.6,77,0.00,,OVC048,0.00,VWS V14.00,2013-02-19 04:00:00,
2013-02-18 20:01:00,42.1,35.4,29.76,NNW,338,0.0,5.6,77,0.00,,OVC048,0.00,VWS V14.00,2013-02-19 04:01:00,
2013-02-18 20:04:00,42.1,35.4,29.76,NNE,22,3.8,5.6,77,0.00,,OVC048,0.00,VWS V14.00,2013-02-19 04:04:00,
2013-02-18 20:05:00,41.9,35.2,29.76,ESE,112,2.5,4.9,77,0.00,,OVC048,0.00,VWS V14.00,2013-02-19 04:05:00,
2013-02-18 20:06:00,41.9,35.2,29.76,NNE,22,3.8,4.9,77,0.00,,OVC048,0.00,VWS V14.00,2013-02-19 04:06:00,
2013-02-18 20:09:00,41.9,35.5,29.76,NW,315,0.0,4.9,78,0.00,,OVC048,0.00,VWS V14.00,2013-02-19 04:09:00,
2013-02-18 20:10:00,41.9,35.5,29.76,NW,315,0.0,4.9,78,0.00,,OVC048,0.00,VWS V14.00,2013-02-19 04:10:00,
2013-02-18 20:12:00,41.9,35.5,29.76,NNE,22,0.9,4.9,78,0.00,,OVC048,0.00,VWS V14.00,2013-02-19 04:12:00,
2013-02-18 20:14:00,41.7,35.4,29.76,NE,45,2.0,4.9,78,0.00,,OVC048,0.00,VWS V14.00,2013-02-19 04:14:00,
2013-02-18 20:16:00,41.7,35.4,29.76,ENE,68,3.8,4.9,78,0.00,,OVC048,0.00,VWS V14.00,2013-02-19 04:16:00,
2013-02-18 20:17:00,41.7,35.4,29.76,NE,45,2.5,4.9,78,0.00,,OVC050,0.00,VWS V14.00,2013-02-19 04:17:00,
2013-02-18 20:19:00,41.7,35.4,29.76,East,90,3.6,4.9,78,0.00,,OVC048,0.00,VWS V14.00,2013-02-19 04:19:00,
2013-02-18 20:21:00,41.7,35.4,29.76,NE,45,1.3,4.9,78,0.00,,OVC048,0.00,VWS V14.00,2013-02-19 04:21:00,
2013-02-18 20:22:00,41.7,35.4,29.76,ENE,68,0.0,4.9,78,0.00,,OVC048,0.00,VWS V14.00,2013-02-19 04:22:00,
2013-02-18 20:24:00,41.7,35.4,29.76,ESE,112,2.7,4.7,78,0.00,,OVC048,0.00,VWS V14.00,2013-02-19 04:24:00,
2013-02-18 20:26:00,41.7,35.4,29.76,ENE,68,1.6,4.7,78,0.00,,OVC048,0.00,VWS V14.00,2013-02-19 04:26:00,
2013-02-18 20:27:00,41.7,35.7,29.76,NE,45,0.0,4.7,79,0.00,,OVC048,0.00,VWS V14.00,2013-02-19 04:27:00,
2013-02-18 20:29:00,41.7,35.7,29.76,WNW,292,0.0,4.3,79,0.00,,OVC048,0.00,VWS V14.00,2013-02-19 04:29:00,
2013-02-18 20:31:00,41.7,35.7,29.76,NNW,338,0.0,4.3,79,0.00,,OVC048,0.00,VWS V14.00,2013-02-19 04:31:00,
2013-02-18 20:32:00,41.7,35.7,29.76,NNW,338,0.0,4.3,79,0.00,,OVC090,0.00,VWS V14.00,2013-02-19 04:32:00,
2013-02-18 20:34:00,41.5,35.5,29.76,NW,315,3.8,4.3,79,0.00,,OVC090,0.00,VWS V14.00,2013-02-19 04:34:00,
2013-02-18 20:36:00,41.5,35.5,29.76,NW,315,3.8,4.3,79,0.00,,OVC090,0.00,VWS V14.00,2013-02-19 04:36:00,
2013-02-18 20:37:00,41.5,35.5,29.76,SE,135,0.0,4.3,79,0.00,,OVC090,0.00,VWS V14.00,2013-02-19 04:37:00,
2013-02-18 20:39:00,41.5,35.5,29.76,NE,45,1.1,4.3,79,0.00,,OVC090,0.00,VWS V14.00,2013-02-19 04:39:00,
2013-02-18 20:41:00,41.5,35.8,29.76,East,90,3.1,3.8,80,0.00,,OVC090,0.00,VWS V14.00,2013-02-19 04:41:00,
2013-02-18 20:42:00,41.5,35.8,29.76,NNE,22,0.0,3.8,80,0.00,,OVC090,0.00,VWS V14.00,2013-02-19 04:42:00,
2013-02-18 20:44:00,41.5,35.8,29.76,ENE,68,3.4,3.8,80,0.00,,OVC090,0.00,VWS V14.00,2013-02-19 04:44:00,
2013-02-18 20:46:00,41.5,35.5,29.76,NNW,338,2.0,3.8,79,0.00,,OVC090,0.00,VWS V14.00,2013-02-19 04:46:00,
2013-02-18 20:47:00,41.5,35.8,29.76,ENE,68,0.0,3.8,80,0.00,,OVC090,0.00,VWS V14.00,2013-02-19 04:47:00,
2013-02-18 20:49:00,41.5,35.8,29.76,NNE,22,2.2,3.8,80,0.00,,BKN080,0.00,VWS V14.00,2013-02-19 04:49:00,
2013-02-18 20:51:00,41.4,35.7,29.76,NE,45,0.0,3.8,80,0.00,,BKN080,0.00,VWS V14.00,2013-02-19 04:51:00,
2013-02-18 20:52:00,41.4,35.7,29.76,ENE,68,0.0,3.4,80,0.00,,BKN080,0.00,VWS V14.00,2013-02-19 04:52:00,
2013-02-18 20:55:00,41.4,35.7,29.76,SSE,158,0.0,3.4,80,0.00,,BKN080,0.00,VWS V14.00,2013-02-19 04:55:00,
2013-02-18 20:56:00,41.2,35.5,29.76,East,90,0.0,3.4,80,0.00,,BKN080,0.00,VWS V14.00,2013-02-19 04:56:00,
2013-02-18 20:57:00,41.2,35.5,29.76,East,90,0.0,3.4,80,0.00,,BKN080,0.00,VWS V14.00,2013-02-19 04:57:00,
2013-02-18 21:00:00,41.2,35.8,29.76,East,90,0.0,3.4,81,0.00,,BKN080,0.00,VWS V14.00,2013-02-19 05:00:00,
2013-02-18 21:05:00,41.0,35.9,29.76,East,90,0.0,2.2,82,0.00,,BKN080,0.00,VWS V14.00,2013-02-19 05:05:00,
2013-02-18 21:10:00,41.0,35.9,29.76,East,90,0.0,0.0,82,0.00,,BKN080,0.00,VWS V14.00,2013-02-19 05:10:00,
2013-02-18 21:15:00,41.0,35.9,29.76,East,90,0.0,2.5,82,0.00,,BKN080,0.00,VWS V14.00,2013-02-19 05:15:00,
2013-02-18 21:16:00,41.0,35.9,29.76,East,90,0.0,2.5,82,0.00,,BKN080,0.00,VWS V14.00,2013-02-19 05:16:00,
2013-02-18 21:20:00,41.0,35.9,29.76,East,90,1.3,3.4,82,0.00,,BKN080,0.00,VWS V14.00,2013-02-19 05:20:00,
2013-02-18 21:21:00,41.0,35.9,29.76,NNE,22,2.7,3.4,82,0.00,,BKN080,0.00,VWS V14.00,2013-02-19 05:21:00,
2013-02-18 21:25:00,41.0,35.9,29.76,ENE,68,4.0,4.0,82,0.04,,BKN080,0.04,VWS V14.00,2013-02-19 05:25:00,
2013-02-18 21:26:00,40.8,36.1,29.76,East,90,2.5,4.0,83,0.04,,BKN080,0.04,VWS V14.00,2013-02-19 05:26:00,
2013-02-18 21:30:00,40.8,36.4,29.76,NE,45,0.0,4.0,84,0.04,,BKN080,0.04,VWS V14.00,2013-02-19 05:30:00,
2013-02-18 21:31:00,40.6,36.2,29.76,NE,45,0.0,4.0,84,0.04,,BKN080,0.04,VWS V14.00,2013-02-19 05:31:00,
2013-02-18 21:35:00,40.6,36.2,29.76,East,90,3.1,4.9,84,0.04,,OVC085,0.04,VWS V14.00,2013-02-19 05:35:00,
2013-02-18 21:36:00,40.6,36.2,29.76,ENE,68,2.9,4.9,84,0.04,,OVC085,0.04,VWS V14.00,2013-02-19 05:36:00,
2013-02-18 21:40:00,40.6,36.2,29.76,SSE,158,0.0,4.9,84,0.04,,OVC085,0.04,VWS V14.00,2013-02-19 05:40:00,
2013-02-18 21:41:00,40.6,36.2,29.76,NNE,22,3.1,4.9,84,0.04,,OVC085,0.04,VWS V14.00,2013-02-19 05:41:00,
2013-02-18 21:45:00,40.6,36.5,29.76,East,90,1.6,4.9,85,0.04,,OVC085,0.04,VWS V14.00,2013-02-19 05:45:00,
2013-02-18 21:46:00,40.6,36.5,29.76,WSW,248,0.0,4.9,85,0.04,,OVC085,0.04,VWS V14.00,2013-02-19 05:46:00,
2013-02-18 21:50:00,40.5,36.3,29.76,East,90,0.0,4.9,85,0.04,,OVC032,0.04,VWS V14.00,2013-02-19 05:50:00,
2013-02-18 21:51:00,40.5,36.3,29.76,NE,45,2.5,3.4,85,0.04,,OVC032,0.04,VWS V14.00,2013-02-19 05:51:00,
2013-02-18 21:55:00,40.5,36.3,29.76,ENE,68,3.1,4.3,85,0.04,,OVC032,0.04,VWS V14.00,2013-02-19 05:55:00,
2013-02-18 21:56:00,40.5,36.3,29.76,ENE,68,3.1,4.3,85,0.04,,BKN048,0.04,VWS V14.00,2013-02-19 05:56:00,
2013-02-18 22:00:00,40.3,36.4,29.76,SW,225,2.0,5.6,86,0.04,,OVC032,0.04,VWS V14.00,2013-02-19 06:00:00,
2013-02-18 22:01:00,40.3,36.4,29.76,SW,225,2.0,5.6,86,0.04,,OVC032,0.04,VWS V14.00,2013-02-19 06:01:00,
2013-02-18 22:05:00,40.3,36.4,29.74,East,90,3.6,5.6,86,0.04,,OVC032,0.04,VWS V14.00,2013-02-19 06:05:00,
2013-02-18 22:06:00,40.3,36.7,29.74,ENE,68,5.4,5.6,87,0.04,,OVC032,0.04,VWS V14.00,2013-02-19 06:06:00,
2013-02-18 22:10:00,40.1,36.5,29.74,East,90,9.6,9.6,87,0.04,,OVC032,0.04,VWS V14.00,2013-02-19 06:10:00,
2013-02-18 22:11:00,40.1,36.5,29.74,SE,135,6.3,9.6,87,0.04,,OVC032,0.04,VWS V14.00,2013-02-19 06:11:00,
2013-02-18 22:15:00,39.9,36.4,29.74,East,90,4.7,9.6,87,0.08,,OVC032,0.08,VWS V14.00,2013-02-19 06:15:00,
2013-02-18 22:16:00,39.9,36.4,29.74,East,90,4.7,9.6,87,0.08,,OVC032,0.08,VWS V14.00,2013-02-19 06:16:00,
2013-02-18 22:20:00,39.9,36.7,29.74,SSE,158,3.8,9.6,88,0.08,,OVC032,0.08,VWS V14.00,2013-02-19 06:20:00,
2013-02-18 22:21:00,39.9,36.7,29.74,East,90,3.1,9.6,88,0.08,,OVC032,0.08,VWS V14.00,2013-02-19 06:21:00,
2013-02-18 22:25:00,39.9,36.7,29.74,SE,135,3.1,6.3,88,0.04,,OVC032,0.08,VWS V14.00,2013-02-19 06:25:00,
2013-02-18 22:26:00,39.9,36.7,29.74,SE,135,3.1,6.3,88,0.04,,OVC032,0.08,VWS V14.00,2013-02-19 06:26:00,
2013-02-18 22:30:00,39.9,36.7,29.74,NNE,22,6.3,6.3,88,0.04,,OVC032,0.08,VWS V14.00,2013-02-19 06:30:00,
2013-02-18 22:31:00,39.9,36.7,29.74,ENE,68,2.2,6.3,88,0.04,,OVC032,0.08,VWS V14.00,2013-02-19 06:31:00,
2013-02-18 22:35:00,39.7,36.5,29.74,ENE,68,1.6,6.3,88,0.04,,OVC027,0.08,VWS V14.00,2013-02-19 06:35:00,
2013-02-18 22:36:00,39.9,36.7,29.74,ENE,68,1.6,6.3,88,0.04,,OVC027,0.08,VWS V14.00,2013-02-19 06:36:00,
2013-02-18 22:40:00,39.9,37.0,29.74,ENE,68,2.5,6.3,89,0.08,,OVC027,0.12,VWS V14.00,2013-02-19 06:40:00,
2013-02-18 22:41:00,39.9,37.0,29.74,SE,135,3.8,6.3,89,0.08,,OVC027,0.12,VWS V14.00,2013-02-19 06:41:00,
2013-02-18 22:45:00,39.9,37.0,29.74,East,90,4.3,4.3,89,0.08,,OVC027,0.12,VWS V14.00,2013-02-19 06:45:00,
2013-02-18 22:46:00,39.9,37.0,29.74,East,90,4.3,4.3,89,0.08,,OVC027,0.12,VWS V14.00,2013-02-19 06:46:00,
2013-02-18 22:50:00,39.7,36.8,29.74,East,90,3.8,6.0,89,0.08,,OVC027,0.12,VWS V14.00,2013-02-19 06:50:00,
2013-02-18 22:51:00,39.7,36.8,29.74,ESE,112,2.0,6.0,89,0.08,,OVC027,0.12,VWS V14.00,2013-02-19 06:51:00,
2013-02-18 22:55:00,39.7,36.8,29.74,East,90,7.6,7.6,89,0.08,,OVC027,0.12,VWS V14.00,2013-02-19 06:55:00,
2013-02-18 22:56:00,39.7,36.8,29.74,NNE,22,4.3,7.6,89,0.08,,OVC027,0.12,VWS V14.00,2013-02-19 06:56:00,
2013-02-18 23:00:00,39.9,37.0,29.74,NE,45,2.7,7.6,89,0.08,,OVC027,0.12,VWS V14.00,2013-02-19 07:00:00,
2013-02-18 23:01:00,39.9,37.0,29.74,NE,45,2.0,7.6,89,0.08,,OVC027,0.12,VWS V14.00,2013-02-19 07:01:00,
2013-02-18 23:05:00,39.7,36.8,29.74,NE,45,4.3,8.5,89,0.08,,OVC027,0.12,VWS V14.00,2013-02-19 07:05:00,
2013-02-18 23:06:00,39.7,36.8,29.74,ESE,112,5.8,8.5,89,0.08,,OVC027,0.12,VWS V14.00,2013-02-19 07:06:00,
2013-02-18 23:07:00,39.7,36.8,29.74,ESE,112,5.8,8.5,89,0.08,,OVC027,0.12,VWS V14.00,2013-02-19 07:07:00,
2013-02-18 23:10:00,39.7,36.8,29.74,ENE,68,2.5,5.8,89,0.08,,OVC027,0.12,VWS V14.00,2013-02-19 07:10:00,
2013-02-18 23:11:00,39.7,36.8,29.74,ENE,68,2.5,5.8,89,0.08,,OVC027,0.12,VWS V14.00,2013-02-19 07:11:00,
2013-02-18 23:12:00,39.7,36.8,29.74,ENE,68,2.5,5.8,89,0.08,,OVC027,0.12,VWS V14.00,2013-02-19 07:12:00,
2013-02-18 23:15:00,39.7,36.8,29.74,SW,225,4.7,5.8,89,0.04,,OVC027,0.12,VWS V14.00,2013-02-19 07:15:00,
2013-02-18 23:16:00,39.7,37.0,29.74,SW,225,4.7,5.8,90,0.04,,OVC027,0.12,VWS V14.00,2013-02-19 07:16:00,
2013-02-18 23:17:00,39.7,37.0,29.74,SW,225,4.7,5.8,90,0.04,,OVC027,0.12,VWS V14.00,2013-02-19 07:17:00,
2013-02-18 23:20:00,39.6,36.6,29.71,East,90,5.8,5.8,89,0.04,,OVC027,0.12,VWS V14.00,2013-02-19 07:20:00,
2013-02-18 23:21:00,39.6,36.6,29.71,East,90,5.8,5.8,89,0.04,,OVC027,0.12,VWS V14.00,2013-02-19 07:21:00,
2013-02-18 23:22:00,39.6,36.9,29.71,East,90,5.8,5.8,90,0.04,,OVC027,0.12,VWS V14.00,2013-02-19 07:22:00,
2013-02-18 23:25:00,39.6,36.9,29.71,ENE,68,3.4,9.8,90,0.04,,OVC027,0.12,VWS V14.00,2013-02-19 07:25:00,
2013-02-18 23:26:00,39.6,36.9,29.71,NNE,22,1.3,9.8,90,0.04,,OVC027,0.12,VWS V14.00,2013-02-19 07:26:00,
2013-02-18 23:27:00,39.6,36.9,29.71,NNE,22,1.3,9.8,90,0.04,,OVC027,0.12,VWS V14.00,2013-02-19 07:27:00,
2013-02-18 23:30:00,39.6,36.9,29.71,NW,315,2.9,9.8,90,0.04,,OVC027,0.12,VWS V14.00,2013-02-19 07:30:00,
2013-02-18 23:31:00,39.6,36.9,29.71,East,90,2.0,9.8,90,0.04,,OVC027,0.12,VWS V14.00,2013-02-19 07:31:00,
2013-02-18 23:32:00,39.6,36.9,29.71,East,90,3.1,9.8,90,0.04,,OVC030,0.12,VWS V14.00,2013-02-19 07:32:00,
2013-02-18 23:35:00,39.4,36.7,29.71,NNW,338,3.4,9.8,90,0.04,,OVC030,0.12,VWS V14.00,2013-02-19 07:35:00,
2013-02-18 23:36:00,39.4,36.7,29.71,NNW,338,3.4,9.8,90,0.04,,OVC030,0.12,VWS V14.00,2013-02-19 07:36:00,
2013-02-18 23:37:00,39.4,36.7,29.71,NNW,338,3.4,9.8,90,0.04,,OVC030,0.12,VWS V14.00,2013-02-19 07:37:00,
2013-02-18 23:40:00,39.4,36.7,29.71,NE,45,3.6,5.4,90,0.00,,OVC030,0.12,VWS V14.00,2013-02-19 07:40:00,
2013-02-18 23:41:00,39.4,36.7,29.71,ENE,68,3.6,5.4,90,0.00,,OVC030,0.12,VWS V14.00,2013-02-19 07:41:00,
2013-02-18 23:42:00,39.4,36.7,29.71,ENE,68,3.6,5.4,90,0.00,,OVC030,0.12,VWS V14.00,2013-02-19 07:42:00,
2013-02-18 23:45:00,39.4,36.7,29.71,NE,45,3.6,5.4,90,0.00,,OVC030,0.12,VWS V14.00,2013-02-19 07:45:00,
2013-02-18 23:46:00,39.4,36.7,29.71,East,90,1.6,3.6,90,0.00,,OVC030,0.12,VWS V14.00,2013-02-19 07:46:00,
2013-02-18 23:47:00,39.4,36.7,29.71,East,90,1.6,3.6,90,0.00,,OVC030,0.12,VWS V14.00,2013-02-19 07:47:00,
2013-02-18 23:50:00,39.2,36.5,29.71,NNE,22,2.5,4.9,90,0.00,,OVC100,0.12,VWS V14.00,2013-02-19 07:50:00,
2013-02-18 23:51:00,39.2,36.5,29.71,NNE,22,2.0,4.9,90,0.00,,OVC100,0.12,VWS V14.00,2013-02-19 07:51:00,
2013-02-18 23:52:00,39.2,36.5,29.71,East,90,2.2,4.9,90,0.00,,OVC100,0.12,VWS V14.00,2013-02-19 07:52:00,
2013-02-18 23:55:00,39.2,36.5,29.71,ENE,68,5.6,5.6,90,0.00,,OVC100,0.12,VWS V14.00,2013-02-19 07:55:00,
2013-02-18 23:57:00,39.2,36.5,29.71,North,0,0.9,5.6,90,0.00,,OVC100,0.12,VWS V14.00,2013-02-19 07:57:00,